GEFSNE_prec_meanprecacc_186.txt.gz
Total_Precipitation_Accumulation
1.97 2.04 2.00 1.99 1.96 1.85 1.83 1.98 2.07 1.91 1.76 1.58 1.45 1.37 1.37 1.30 1.40 1.24 1.17 1.09 0.92 0.83 0.79 0.83 1.02 1.33 1.54 1.75 1.91 1.87 1.90 1.96 2.08 2.22 2.19 2.09 2.05 1.92
1.96 2.07 2.10 2.08 2.10 2.02 1.90 1.89 1.84 1.87 1.79 1.57 1.39 1.30 1.43 1.31 1.41 1.23 1.17 1.30 1.09 0.91 0.84 0.81 0.81 0.88 1.03 1.23 1.40 1.46 1.41 1.43 1.56 1.84 2.03 2.06 1.96 1.80
1.77 1.87 1.98 2.08 2.20 2.21 2.20 2.09 1.93 1.88 1.80 1.64 1.43 1.31 1.46 1.50 1.44 1.38 1.25 1.18 1.14 1.04 0.95 0.92 0.87 0.77 0.85 0.95 1.11 1.21 1.20 1.06 1.05 1.23 1.47 1.59 1.77 1.79
1.60 1.58 1.66 1.76 1.92 2.07 2.16 2.10 2.08 1.97 1.88 1.85 1.67 1.42 1.32 1.40 1.47 1.56 1.47 1.25 1.19 1.23 1.15 1.05 0.99 0.86 0.77 0.80 0.89 0.97 1.00 0.99 0.90 0.88 0.99 1.08 1.18 1.37
1.37 1.35 1.37 1.46 1.60 1.74 1.83 1.90 2.01 2.05 2.05 1.95 1.87 1.69 1.44 1.45 1.53 1.56 1.58 1.65 1.40 1.29 1.29 1.22 1.14 1.05 0.98 0.89 0.87 0.89 0.86 0.87 0.86 0.78 0.77 0.89 0.94 1.07
1.09 1.10 1.15 1.19 1.28 1.40 1.55 1.76 1.95 2.06 2.13 2.12 2.02 1.80 1.63 1.59 1.57 1.58 1.66 1.75 1.72 1.49 1.37 1.29 1.32 1.28 1.14 1.05 0.98 0.95 0.95 0.90 0.90 0.89 0.80 0.76 0.79 0.82
0.88 0.79 0.81 0.88 0.90 0.98 1.03 1.32 1.58 1.81 1.94 2.02 2.00 1.85 1.64 1.53 1.41 1.45 1.59 1.76 1.84 1.79 1.70 1.43 1.35 1.31 1.25 1.20 1.11 1.03 0.99 1.02 0.98 0.95 0.95 0.90 0.90 0.88
0.78 0.70 0.69 0.72 0.64 0.61 0.65 0.87 1.17 1.38 1.57 1.75 1.81 1.69 1.55 1.47 1.51 1.51 1.52 1.58 1.61 1.54 1.55 1.56 1.48 1.38 1.30 1.24 1.24 1.22 1.14 1.10 1.12 1.07 1.07 1.05 1.03 1.07
0.80 0.82 0.75 0.70 0.77 0.69 0.63 0.70 0.79 0.91 1.07 1.33 1.56 1.55 1.64 1.57 1.48 1.43 1.44 1.48 1.49 1.54 1.55 1.56 1.46 1.36 1.24 1.19 1.32 1.26 1.27 1.22 1.23 1.26 1.18 1.19 1.16 1.15
0.85 0.94 0.95 0.88 0.86 0.94 0.89 0.89 0.87 0.80 0.85 0.78 1.00 1.38 1.52 1.58 1.53 1.56 1.65 1.58 1.46 1.49 1.52 1.54 1.46 1.34 1.20 1.10 1.20 1.12 1.07 1.06 1.14 1.31 1.40 1.38 1.39 1.36
0.79 0.91 0.95 0.89 0.93 1.00 1.12 1.18 1.10 0.95 1.06 1.07 0.98 1.09 1.23 1.29 1.40 1.50 1.57 1.50 1.45 1.38 1.27 1.25 1.20 1.23 1.28 1.19 1.14 1.18 1.09 1.03 0.99 1.02 1.14 1.21 1.32 1.47
0.82 0.87 1.02 0.95 0.92 0.90 0.99 1.13 1.12 0.99 0.87 0.90 0.87 0.77 0.71 0.82 1.02 1.19 1.47 1.59 1.53 1.43 1.24 1.17 1.19 1.18 1.21 1.14 1.05 1.07 1.05 1.10 1.07 1.01 1.05 1.14 1.22 1.28
0.93 0.98 0.96 1.04 0.88 0.84 0.86 0.87 0.96 0.95 0.93 0.98 1.05 0.94 0.82 0.77 0.82 0.90 1.11 1.33 1.46 1.39 1.26 1.12 1.15 1.17 1.10 0.98 0.95 0.97 0.97 0.95 0.98 1.03 1.08 1.19 1.26 1.19
0.82 0.83 0.79 0.88 0.74 0.66 0.62 0.68 0.75 0.80 0.89 1.01 1.01 0.98 0.96 0.91 0.89 0.91 0.96 1.06 1.16 1.23 1.23 1.19 1.13 1.11 1.09 0.97 0.92 0.93 0.93 0.92 0.88 0.91 0.94 1.17 1.34 1.38
0.54 0.63 0.65 0.63 0.59 0.52 0.57 0.62 0.63 0.66 0.77 0.86 0.88 0.85 0.85 0.90 0.90 0.90 0.92 0.96 0.96 0.90 0.88 0.95 1.05 1.10 1.13 1.06 0.94 0.91 0.91 0.88 0.83 0.83 0.88 0.94 1.03 1.20
0.45 0.48 0.48 0.48 0.49 0.51 0.54 0.58 0.64 0.68 0.72 0.75 0.75 0.77 0.79 0.86 0.92 0.90 0.89 0.94 0.99 0.94 0.89 0.91 0.97 1.10 1.14 1.08 1.03 0.95 0.93 0.90 0.84 0.81 0.81 0.87 0.97 1.07
0.55 0.50 0.47 0.48 0.50 0.57 0.60 0.59 0.63 0.67 0.67 0.66 0.68 0.71 0.70 0.76 0.81 0.82 0.83 0.85 0.86 0.81 0.83 0.90 0.97 1.03 1.04 1.05 1.07 1.01 1.03 1.04 1.01 0.98 0.95 0.90 0.90 0.98
0.54 0.61 0.64 0.69 0.72 0.71 0.69 0.61 0.56 0.57 0.63 0.69 0.69 0.69 0.70 0.69 0.73 0.76 0.78 0.82 0.81 0.74 0.68 0.71 0.83 0.94 0.95 0.88 0.84 0.86 0.91 0.94 1.02 1.09 1.04 0.98 0.93 0.95
0.50 0.67 0.69 0.67 0.64 0.63 0.60 0.53 0.48 0.45 0.47 0.57 0.67 0.74 0.76 0.76 0.79 0.82 0.80 0.76 0.74 0.74 0.69 0.65 0.69 0.81 0.88 0.77 0.69 0.67 0.71 0.78 0.87 0.92 0.95 0.90 0.85 0.88
0.47 0.57 0.60 0.59 0.51 0.46 0.40 0.36 0.35 0.34 0.34 0.39 0.45 0.55 0.71 0.82 0.90 0.91 0.91 0.92 0.89 0.85 0.80 0.72 0.65 0.65 0.72 0.74 0.66 0.58 0.59 0.66 0.75 0.77 0.78 0.81 0.81 0.88
0.28 0.29 0.31 0.33 0.33 0.29 0.27 0.27 0.28 0.29 0.30 0.32 0.35 0.40 0.50 0.65 0.83 0.93 0.94 0.97 0.96 0.95 0.92 0.83 0.78 0.83 0.78 0.81 0.78 0.60 0.53 0.57 0.64 0.66 0.69 0.74 0.76 0.75
0.17 0.18 0.18 0.18 0.20 0.21 0.21 0.23 0.26 0.28 0.27 0.30 0.36 0.42 0.52 0.58 0.63 0.74 0.86 0.88 0.81 0.77 0.78 0.80 0.84 0.87 0.85 0.89 0.86 0.72 0.60 0.55 0.61 0.69 0.69 0.69 0.67 0.65
0.17 0.17 0.17 0.17 0.20 0.26 0.27 0.26 0.26 0.28 0.28 0.30 0.34 0.41 0.50 0.60 0.65 0.67 0.70 0.73 0.76 0.78 0.79 0.79 0.81 0.82 0.84 0.88 0.94 0.90 0.77 0.69 0.68 0.70 0.70 0.79 0.74 0.63

GEFSNE_prec_meanprecacc_192.txt.gz
Total_Precipitation_Accumulation
1.98 2.06 2.02 2.00 1.97 1.86 1.84 1.99 2.08 1.92 1.77 1.59 1.46 1.38 1.37 1.30 1.41 1.26 1.20 1.13 0.94 0.86 0.84 0.86 1.03 1.35 1.56 1.77 1.95 1.94 2.02 2.11 2.17 2.27 2.25 2.14 2.11 1.97
1.98 2.09 2.11 2.10 2.12 2.04 1.91 1.90 1.86 1.89 1.80 1.58 1.40 1.31 1.44 1.31 1.42 1.24 1.19 1.34 1.11 0.94 0.89 0.86 0.85 0.91 1.04 1.24 1.44 1.54 1.54 1.60 1.68 1.91 2.09 2.10 2.00 1.84
1.77 1.88 2.00 2.09 2.21 2.23 2.21 2.09 1.94 1.89 1.80 1.64 1.44 1.32 1.46 1.51 1.45 1.39 1.28 1.21 1.17 1.08 0.99 0.97 0.91 0.80 0.87 0.97 1.13 1.28 1.31 1.18 1.12 1.27 1.50 1.60 1.78 1.80
1.61 1.58 1.66 1.77 1.93 2.08 2.16 2.10 2.08 1.98 1.88 1.86 1.68 1.42 1.33 1.42 1.48 1.57 1.49 1.27 1.22 1.27 1.19 1.09 1.03 0.88 0.79 0.82 0.92 1.00 1.04 1.04 0.94 0.91 1.01 1.09 1.19 1.38
1.38 1.36 1.38 1.46 1.61 1.75 1.84 1.91 2.01 2.05 2.05 1.96 1.87 1.69 1.45 1.46 1.53 1.57 1.61 1.68 1.43 1.33 1.32 1.27 1.18 1.08 1.00 0.91 0.89 0.91 0.88 0.89 0.88 0.80 0.79 0.90 0.94 1.08
1.09 1.10 1.15 1.20 1.28 1.41 1.56 1.77 1.96 2.06 2.13 2.12 2.02 1.80 1.64 1.60 1.57 1.59 1.68 1.76 1.74 1.51 1.39 1.31 1.34 1.29 1.15 1.06 0.98 0.96 0.95 0.90 0.90 0.89 0.80 0.76 0.80 0.82
0.89 0.80 0.81 0.89 0.91 1.00 1.04 1.33 1.59 1.81 1.95 2.02 2.00 1.86 1.65 1.54 1.41 1.45 1.60 1.76 1.85 1.80 1.71 1.43 1.35 1.31 1.25 1.20 1.11 1.04 1.00 1.02 0.98 0.95 0.95 0.90 0.90 0.88
0.78 0.71 0.69 0.72 0.64 0.61 0.66 0.88 1.18 1.39 1.57 1.75 1.81 1.70 1.56 1.47 1.52 1.52 1.52 1.58 1.62 1.55 1.55 1.56 1.48 1.38 1.30 1.24 1.24 1.22 1.15 1.10 1.12 1.07 1.07 1.05 1.03 1.07
0.80 0.83 0.75 0.70 0.77 0.69 0.63 0.70 0.79 0.91 1.07 1.34 1.57 1.56 1.65 1.57 1.48 1.43 1.44 1.48 1.49 1.54 1.55 1.56 1.46 1.36 1.24 1.19 1.33 1.26 1.27 1.22 1.23 1.26 1.18 1.19 1.16 1.15
0.86 0.94 0.95 0.88 0.87 0.94 0.89 0.89 0.87 0.80 0.86 0.79 1.00 1.38 1.52 1.58 1.53 1.56 1.65 1.58 1.46 1.49 1.52 1.54 1.46 1.34 1.20 1.11 1.20 1.12 1.07 1.07 1.14 1.31 1.40 1.38 1.39 1.36
0.79 0.91 0.95 0.90 0.94 1.00 1.12 1.18 1.10 0.95 1.06 1.07 0.99 1.09 1.23 1.29 1.41 1.51 1.57 1.50 1.46 1.38 1.28 1.25 1.21 1.23 1.28 1.19 1.15 1.18 1.09 1.03 1.00 1.02 1.14 1.21 1.32 1.47
0.82 0.88 1.02 0.95 0.93 0.90 0.99 1.13 1.12 0.99 0.87 0.90 0.87 0.77 0.71 0.82 1.02 1.19 1.48 1.59 1.54 1.44 1.24 1.17 1.19 1.18 1.23 1.16 1.06 1.08 1.06 1.11 1.08 1.01 1.06 1.14 1.22 1.28
0.94 0.99 0.96 1.05 0.89 0.85 0.86 0.87 0.96 0.95 0.93 0.98 1.05 0.94 0.82 0.78 0.82 0.90 1.11 1.33 1.46 1.39 1.26 1.13 1.16 1.18 1.12 1.00 0.96 0.98 0.98 0.96 0.98 1.03 1.08 1.19 1.26 1.19
0.83 0.83 0.80 0.89 0.74 0.66 0.62 0.68 0.75 0.80 0.89 1.01 1.01 0.98 0.96 0.91 0.89 0.91 0.96 1.06 1.16 1.23 1.24 1.20 1.14 1.12 1.10 0.98 0.93 0.94 0.94 0.92 0.88 0.91 0.94 1.18 1.34 1.38
0.55 0.64 0.65 0.64 0.59 0.52 0.57 0.62 0.63 0.67 0.77 0.86 0.88 0.85 0.85 0.90 0.90 0.90 0.92 0.96 0.96 0.90 0.89 0.96 1.06 1.11 1.14 1.07 0.95 0.93 0.92 0.89 0.83 0.83 0.89 0.95 1.03 1.21
0.46 0.48 0.49 0.48 0.50 0.51 0.54 0.58 0.64 0.68 0.72 0.75 0.75 0.77 0.79 0.86 0.92 0.90 0.89 0.94 0.99 0.95 0.90 0.92 0.99 1.11 1.15 1.09 1.04 0.97 0.94 0.91 0.84 0.81 0.82 0.87 0.97 1.07
0.55 0.51 0.47 0.48 0.50 0.57 0.60 0.59 0.63 0.67 0.67 0.66 0.68 0.71 0.70 0.76 0.81 0.82 0.83 0.85 0.86 0.82 0.84 0.92 0.98 1.04 1.05 1.05 1.08 1.04 1.05 1.04 1.01 0.98 0.95 0.91 0.90 0.98
0.54 0.62 0.64 0.69 0.72 0.71 0.69 0.61 0.56 0.57 0.63 0.69 0.69 0.69 0.70 0.69 0.74 0.77 0.78 0.82 0.82 0.74 0.69 0.73 0.84 0.95 0.96 0.89 0.86 0.89 0.93 0.95 1.03 1.09 1.04 0.99 0.93 0.96
0.50 0.67 0.69 0.67 0.64 0.63 0.60 0.53 0.48 0.45 0.47 0.57 0.67 0.74 0.76 0.76 0.79 0.82 0.80 0.76 0.75 0.74 0.70 0.66 0.70 0.83 0.89 0.78 0.70 0.69 0.73 0.79 0.89 0.93 0.96 0.92 0.87 0.91
0.47 0.57 0.60 0.59 0.51 0.46 0.40 0.36 0.35 0.34 0.34 0.39 0.45 0.55 0.71 0.82 0.90 0.91 0.91 0.92 0.90 0.85 0.80 0.72 0.66 0.66 0.74 0.75 0.68 0.60 0.61 0.68 0.77 0.79 0.80 0.84 0.85 0.92
0.28 0.29 0.31 0.33 0.33 0.29 0.27 0.27 0.28 0.29 0.30 0.32 0.35 0.40 0.50 0.65 0.83 0.93 0.94 0.98 0.96 0.95 0.92 0.83 0.79 0.84 0.79 0.82 0.79 0.62 0.54 0.58 0.65 0.68 0.72 0.79 0.81 0.80
0.17 0.18 0.18 0.18 0.20 0.21 0.21 0.23 0.26 0.28 0.27 0.30 0.36 0.42 0.52 0.58 0.63 0.74 0.86 0.88 0.82 0.77 0.78 0.80 0.85 0.87 0.85 0.90 0.87 0.74 0.62 0.56 0.62 0.71 0.72 0.74 0.74 0.72
0.17 0.17 0.17 0.18 0.20 0.26 0.27 0.26 0.26 0.28 0.28 0.30 0.34 0.41 0.50 0.60 0.65 0.67 0.70 0.73 0.76 0.78 0.79 0.80 0.81 0.82 0.85 0.89 0.96 0.92 0.79 0.70 0.69 0.71 0.73 0.82 0.78 0.67

GEFSNE_prec_meanprecacc_198.txt.gz
Total_Precipitation_Accumulation
1.99 2.06 2.02 2.02 1.99 1.88 1.85 2.00 2.09 1.94 1.79 1.62 1.48 1.40 1.41 1.34 1.44 1.28 1.23 1.17 1.00 0.94 0.93 0.89 1.05 1.36 1.57 1.78 1.96 1.97 2.07 2.16 2.24 2.35 2.30 2.20 2.16 2.00
1.99 2.09 2.12 2.13 2.14 2.06 1.93 1.91 1.87 1.90 1.82 1.61 1.42 1.33 1.45 1.33 1.44 1.26 1.22 1.37 1.17 1.07 1.01 0.90 0.87 0.92 1.05 1.24 1.45 1.58 1.62 1.67 1.75 1.97 2.14 2.14 2.03 1.87
1.78 1.89 2.02 2.11 2.22 2.23 2.22 2.10 1.95 1.90 1.82 1.66 1.46 1.33 1.47 1.52 1.45 1.40 1.28 1.22 1.22 1.19 1.08 1.02 0.94 0.81 0.87 0.97 1.14 1.30 1.39 1.28 1.20 1.33 1.56 1.66 1.83 1.84
1.62 1.60 1.67 1.78 1.94 2.09 2.17 2.11 2.09 1.99 1.90 1.87 1.69 1.44 1.35 1.44 1.49 1.58 1.50 1.28 1.25 1.33 1.25 1.13 1.05 0.90 0.80 0.83 0.94 1.01 1.06 1.09 0.99 0.95 1.04 1.13 1.22 1.40
1.40 1.37 1.38 1.47 1.62 1.77 1.86 1.93 2.04 2.08 2.08 1.97 1.88 1.70 1.45 1.47 1.56 1.60 1.63 1.69 1.44 1.34 1.35 1.29 1.19 1.09 1.01 0.92 0.89 0.91 0.88 0.91 0.91 0.83 0.81 0.92 0.96 1.09
1.10 1.11 1.15 1.20 1.29 1.43 1.57 1.79 1.97 2.08 2.14 2.13 2.02 1.80 1.64 1.61 1.61 1.63 1.72 1.79 1.75 1.51 1.41 1.33 1.36 1.31 1.17 1.07 0.99 0.96 0.96 0.91 0.91 0.90 0.82 0.78 0.81 0.84
0.90 0.81 0.82 0.90 0.93 1.02 1.06 1.35 1.61 1.83 1.95 2.03 2.00 1.86 1.65 1.54 1.42 1.47 1.61 1.78 1.85 1.81 1.71 1.44 1.37 1.33 1.28 1.22 1.13 1.05 1.01 1.03 0.99 0.96 0.96 0.90 0.91 0.88
0.79 0.72 0.70 0.74 0.66 0.63 0.67 0.90 1.19 1.39 1.58 1.76 1.82 1.70 1.56 1.47 1.52 1.52 1.53 1.60 1.63 1.56 1.56 1.57 1.49 1.40 1.33 1.26 1.26 1.24 1.16 1.11 1.13 1.08 1.07 1.05 1.04 1.08
0.81 0.83 0.75 0.71 0.79 0.70 0.64 0.71 0.80 0.92 1.08 1.34 1.57 1.56 1.65 1.58 1.49 1.43 1.45 1.49 1.49 1.55 1.55 1.56 1.46 1.37 1.25 1.21 1.34 1.27 1.27 1.22 1.23 1.26 1.18 1.19 1.16 1.15
0.86 0.94 0.95 0.89 0.87 0.95 0.89 0.90 0.87 0.80 0.87 0.79 1.00 1.38 1.53 1.59 1.54 1.56 1.66 1.59 1.46 1.50 1.52 1.54 1.46 1.34 1.20 1.11 1.21 1.13 1.07 1.07 1.14 1.31 1.40 1.38 1.39 1.36
0.79 0.91 0.95 0.90 0.94 1.00 1.12 1.19 1.11 0.96 1.07 1.07 0.99 1.10 1.24 1.30 1.41 1.51 1.57 1.50 1.46 1.38 1.28 1.25 1.21 1.24 1.28 1.19 1.15 1.19 1.09 1.03 1.00 1.02 1.14 1.21 1.32 1.47
0.82 0.88 1.02 0.95 0.93 0.90 0.99 1.13 1.12 0.99 0.87 0.91 0.88 0.78 0.72 0.82 1.02 1.19 1.48 1.59 1.54 1.44 1.24 1.17 1.19 1.19 1.23 1.16 1.06 1.08 1.06 1.11 1.08 1.01 1.06 1.14 1.22 1.28
0.94 0.99 0.96 1.05 0.89 0.85 0.86 0.88 0.97 0.96 0.93 0.98 1.05 0.95 0.83 0.78 0.82 0.90 1.11 1.33 1.46 1.39 1.26 1.14 1.16 1.19 1.13 1.00 0.96 0.98 0.98 0.96 0.98 1.03 1.08 1.19 1.27 1.20
0.83 0.83 0.80 0.89 0.75 0.67 0.63 0.69 0.76 0.82 0.90 1.02 1.02 0.98 0.97 0.91 0.89 0.91 0.96 1.06 1.16 1.23 1.24 1.21 1.16 1.14 1.12 0.99 0.94 0.95 0.95 0.93 0.89 0.91 0.95 1.18 1.35 1.39
0.55 0.64 0.66 0.64 0.60 0.53 0.58 0.63 0.65 0.68 0.79 0.88 0.89 0.86 0.86 0.90 0.90 0.90 0.92 0.96 0.96 0.91 0.90 0.98 1.09 1.13 1.15 1.08 0.96 0.95 0.95 0.91 0.84 0.83 0.89 0.95 1.04 1.21
0.46 0.49 0.49 0.49 0.50 0.52 0.55 0.60 0.65 0.70 0.73 0.76 0.76 0.78 0.80 0.87 0.93 0.90 0.89 0.94 0.99 0.96 0.91 0.94 1.02 1.14 1.17 1.10 1.07 1.01 0.99 0.94 0.85 0.82 0.82 0.88 0.98 1.08
0.55 0.51 0.47 0.48 0.50 0.57 0.60 0.60 0.63 0.67 0.67 0.66 0.69 0.71 0.71 0.76 0.81 0.82 0.83 0.86 0.87 0.84 0.88 0.95 1.02 1.07 1.08 1.10 1.14 1.09 1.07 1.06 1.03 0.99 0.96 0.92 0.92 0.99
0.55 0.62 0.64 0.69 0.72 0.71 0.69 0.61 0.57 0.57 0.63 0.69 0.69 0.70 0.71 0.70 0.74 0.77 0.79 0.84 0.85 0.78 0.73 0.78 0.90 1.01 1.01 0.94 0.90 0.92 0.95 0.98 1.04 1.10 1.06 1.01 0.95 0.97
0.51 0.68 0.69 0.67 0.64 0.63 0.60 0.54 0.48 0.46 0.48 0.57 0.67 0.75 0.76 0.76 0.79 0.83 0.81 0.78 0.77 0.77 0.73 0.69 0.73 0.85 0.92 0.82 0.74 0.73 0.76 0.81 0.91 0.96 0.99 0.94 0.89 0.93
0.48 0.58 0.60 0.59 0.51 0.46 0.41 0.36 0.35 0.34 0.34 0.39 0.46 0.55 0.71 0.82 0.90 0.91 0.92 0.93 0.92 0.88 0.83 0.74 0.67 0.68 0.77 0.79 0.72 0.63 0.63 0.70 0.80 0.84 0.84 0.87 0.89 0.95
0.28 0.30 0.32 0.34 0.33 0.30 0.28 0.28 0.29 0.29 0.30 0.32 0.35 0.41 0.51 0.65 0.83 0.93 0.94 0.98 0.97 0.97 0.95 0.85 0.81 0.87 0.82 0.85 0.83 0.64 0.56 0.60 0.68 0.73 0.77 0.84 0.86 0.83
0.19 0.20 0.20 0.21 0.22 0.23 0.23 0.24 0.27 0.29 0.27 0.30 0.36 0.42 0.52 0.58 0.64 0.74 0.86 0.89 0.82 0.79 0.80 0.83 0.87 0.90 0.88 0.93 0.90 0.76 0.66 0.61 0.66 0.74 0.77 0.80 0.80 0.78
0.20 0.20 0.20 0.20 0.23 0.28 0.29 0.27 0.27 0.29 0.29 0.30 0.35 0.42 0.50 0.60 0.65 0.68 0.70 0.74 0.77 0.80 0.81 0.82 0.83 0.85 0.87 0.91 0.99 0.97 0.85 0.74 0.71 0.74 0.76 0.86 0.82 0.72

GEFSNE_prec_meanprecacc_204.txt.gz
Total_Precipitation_Accumulation
1.99 2.06 2.03 2.02 2.00 1.89 1.87 2.02 2.12 1.96 1.81 1.63 1.50 1.43 1.45 1.37 1.46 1.30 1.25 1.19 1.03 0.98 1.00 0.96 1.10 1.42 1.62 1.80 1.98 1.99 2.09 2.19 2.28 2.41 2.36 2.23 2.19 2.03
1.99 2.10 2.13 2.13 2.14 2.07 1.94 1.93 1.89 1.92 1.84 1.62 1.44 1.36 1.49 1.36 1.47 1.29 1.24 1.39 1.20 1.12 1.04 0.91 0.89 0.95 1.08 1.26 1.46 1.59 1.64 1.69 1.78 2.02 2.21 2.21 2.10 1.90
1.79 1.89 2.02 2.11 2.23 2.24 2.23 2.11 1.97 1.92 1.84 1.68 1.48 1.35 1.49 1.55 1.48 1.43 1.31 1.24 1.24 1.22 1.09 1.03 0.95 0.82 0.89 0.98 1.15 1.31 1.40 1.29 1.22 1.36 1.61 1.72 1.89 1.88
1.63 1.60 1.68 1.78 1.94 2.09 2.18 2.13 2.11 2.01 1.92 1.89 1.70 1.45 1.36 1.46 1.52 1.60 1.51 1.29 1.25 1.34 1.27 1.16 1.07 0.90 0.81 0.84 0.95 1.02 1.06 1.09 1.00 0.96 1.08 1.18 1.28 1.45
1.40 1.37 1.39 1.47 1.62 1.77 1.86 1.94 2.05 2.09 2.09 1.99 1.89 1.71 1.47 1.49 1.58 1.61 1.64 1.69 1.45 1.35 1.36 1.31 1.21 1.11 1.02 0.93 0.90 0.92 0.89 0.91 0.91 0.84 0.82 0.94 0.99 1.13
1.11 1.11 1.16 1.21 1.29 1.43 1.58 1.80 1.98 2.09 2.15 2.14 2.03 1.81 1.65 1.63 1.62 1.64 1.73 1.79 1.75 1.52 1.42 1.34 1.38 1.33 1.18 1.08 1.00 0.97 0.97 0.92 0.91 0.91 0.82 0.79 0.83 0.85
0.90 0.81 0.83 0.90 0.93 1.02 1.07 1.36 1.61 1.84 1.96 2.03 2.01 1.86 1.65 1.56 1.44 1.47 1.62 1.78 1.86 1.81 1.72 1.45 1.38 1.34 1.29 1.23 1.14 1.06 1.01 1.04 0.99 0.97 0.97 0.91 0.91 0.89
0.80 0.72 0.70 0.74 0.66 0.63 0.68 0.90 1.20 1.40 1.58 1.76 1.82 1.70 1.56 1.49 1.53 1.53 1.54 1.60 1.63 1.56 1.56 1.57 1.50 1.41 1.34 1.28 1.27 1.24 1.17 1.12 1.15 1.10 1.08 1.06 1.04 1.08
0.81 0.84 0.76 0.71 0.79 0.71 0.65 0.72 0.80 0.92 1.08 1.35 1.58 1.56 1.65 1.58 1.49 1.44 1.46 1.49 1.50 1.55 1.56 1.56 1.47 1.38 1.28 1.24 1.36 1.29 1.30 1.25 1.26 1.29 1.19 1.20 1.17 1.16
0.87 0.95 0.96 0.89 0.88 0.95 0.89 0.90 0.87 0.80 0.87 0.80 1.01 1.39 1.53 1.59 1.54 1.57 1.66 1.59 1.47 1.50 1.52 1.55 1.48 1.36 1.22 1.15 1.24 1.15 1.10 1.10 1.17 1.34 1.41 1.38 1.40 1.37
0.80 0.91 0.96 0.90 0.95 1.01 1.12 1.19 1.11 0.96 1.07 1.08 0.99 1.10 1.24 1.30 1.41 1.51 1.58 1.51 1.47 1.39 1.28 1.26 1.22 1.25 1.30 1.21 1.17 1.20 1.10 1.05 1.01 1.03 1.14 1.22 1.32 1.47
0.82 0.88 1.02 0.95 0.93 0.90 0.99 1.14 1.13 1.00 0.87 0.91 0.88 0.78 0.72 0.83 1.02 1.20 1.48 1.60 1.54 1.45 1.25 1.18 1.21 1.19 1.23 1.16 1.06 1.09 1.06 1.11 1.08 1.01 1.06 1.14 1.22 1.28
0.95 0.99 0.97 1.06 0.89 0.85 0.86 0.88 0.97 0.96 0.94 0.98 1.05 0.95 0.83 0.78 0.82 0.91 1.11 1.33 1.47 1.40 1.27 1.14 1.17 1.20 1.13 1.01 0.96 0.98 0.98 0.96 0.98 1.03 1.09 1.20 1.27 1.20
0.83 0.83 0.80 0.90 0.75 0.67 0.63 0.69 0.77 0.82 0.91 1.03 1.02 0.98 0.97 0.92 0.90 0.92 0.97 1.07 1.17 1.24 1.25 1.22 1.17 1.15 1.13 1.00 0.94 0.95 0.95 0.93 0.89 0.91 0.95 1.18 1.35 1.39
0.55 0.64 0.66 0.65 0.60 0.53 0.59 0.63 0.65 0.68 0.79 0.88 0.90 0.87 0.87 0.91 0.92 0.92 0.93 0.97 0.97 0.92 0.92 1.00 1.10 1.15 1.17 1.09 0.97 0.95 0.95 0.91 0.84 0.84 0.89 0.95 1.04 1.21
0.47 0.49 0.49 0.49 0.50 0.52 0.55 0.60 0.65 0.70 0.73 0.76 0.76 0.79 0.81 0.88 0.94 0.91 0.91 0.96 1.02 0.98 0.94 0.97 1.04 1.16 1.19 1.12 1.08 1.02 0.99 0.94 0.85 0.82 0.83 0.88 0.98 1.09
0.56 0.51 0.47 0.48 0.51 0.57 0.60 0.60 0.64 0.68 0.67 0.67 0.69 0.72 0.71 0.77 0.82 0.83 0.85 0.88 0.91 0.89 0.91 0.99 1.05 1.10 1.12 1.14 1.16 1.10 1.08 1.07 1.03 1.00 0.96 0.92 0.92 1.00
0.55 0.62 0.64 0.69 0.72 0.72 0.70 0.62 0.58 0.58 0.64 0.69 0.69 0.70 0.71 0.70 0.75 0.78 0.80 0.86 0.88 0.82 0.78 0.83 0.94 1.05 1.06 0.99 0.93 0.93 0.96 0.98 1.05 1.11 1.06 1.01 0.96 0.98
0.52 0.68 0.69 0.68 0.65 0.63 0.60 0.54 0.49 0.46 0.49 0.58 0.68 0.75 0.76 0.76 0.80 0.83 0.83 0.80 0.79 0.80 0.75 0.71 0.76 0.90 0.96 0.85 0.76 0.74 0.77 0.82 0.91 0.96 0.99 0.95 0.90 0.93
0.49 0.58 0.61 0.59 0.51 0.46 0.41 0.36 0.36 0.35 0.35 0.40 0.46 0.56 0.71 0.83 0.91 0.92 0.93 0.95 0.94 0.90 0.85 0.76 0.69 0.71 0.80 0.82 0.74 0.64 0.64 0.71 0.81 0.85 0.85 0.88 0.89 0.96
0.29 0.30 0.32 0.34 0.34 0.31 0.28 0.29 0.30 0.30 0.31 0.33 0.36 0.41 0.51 0.66 0.84 0.94 0.96 1.00 0.99 0.99 0.98 0.90 0.86 0.91 0.85 0.88 0.85 0.67 0.59 0.62 0.70 0.74 0.78 0.86 0.88 0.86
0.19 0.20 0.21 0.21 0.23 0.24 0.24 0.25 0.28 0.30 0.29 0.32 0.37 0.43 0.54 0.60 0.65 0.75 0.88 0.91 0.85 0.81 0.83 0.86 0.91 0.93 0.91 0.96 0.93 0.80 0.69 0.63 0.68 0.76 0.79 0.82 0.84 0.83
0.21 0.21 0.21 0.21 0.24 0.29 0.30 0.28 0.29 0.30 0.30 0.32 0.36 0.43 0.52 0.61 0.66 0.69 0.72 0.76 0.79 0.82 0.83 0.84 0.86 0.87 0.90 0.96 1.04 1.02 0.89 0.78 0.75 0.78 0.79 0.88 0.84 0.74

GEFSNE_prec_meanprecacc_210.txt.gz
Total_Precipitation_Accumulation
2.00 2.07 2.03 2.02 2.00 1.90 1.88 2.05 2.15 2.00 1.85 1.66 1.52 1.45 1.47 1.39 1.47 1.31 1.26 1.19 1.04 0.98 1.00 0.97 1.12 1.43 1.63 1.82 1.99 2.01 2.12 2.22 2.31 2.44 2.39 2.26 2.23 2.08
2.01 2.11 2.13 2.13 2.14 2.08 1.96 1.95 1.91 1.96 1.87 1.65 1.46 1.38 1.51 1.38 1.48 1.30 1.24 1.39 1.20 1.12 1.04 0.92 0.90 0.97 1.09 1.28 1.48 1.61 1.65 1.71 1.80 2.04 2.23 2.23 2.16 1.99
1.80 1.90 2.03 2.12 2.23 2.25 2.24 2.13 1.99 1.95 1.86 1.70 1.50 1.37 1.52 1.57 1.50 1.43 1.31 1.24 1.24 1.23 1.10 1.05 0.96 0.84 0.91 1.01 1.18 1.33 1.41 1.30 1.23 1.38 1.62 1.74 1.94 1.98
1.65 1.61 1.69 1.79 1.95 2.10 2.20 2.14 2.13 2.03 1.93 1.91 1.73 1.48 1.40 1.49 1.54 1.62 1.53 1.30 1.27 1.36 1.29 1.18 1.08 0.92 0.84 0.87 0.98 1.04 1.08 1.10 1.01 0.97 1.09 1.19 1.30 1.50
1.42 1.39 1.40 1.49 1.63 1.78 1.87 1.96 2.07 2.10 2.11 2.01 1.92 1.74 1.50 1.52 1.60 1.63 1.66 1.71 1.47 1.38 1.38 1.32 1.23 1.12 1.04 0.96 0.93 0.94 0.91 0.92 0.92 0.85 0.83 0.95 1.01 1.15
1.11 1.12 1.17 1.22 1.31 1.44 1.58 1.80 1.99 2.10 2.17 2.15 2.05 1.83 1.67 1.64 1.63 1.65 1.74 1.81 1.78 1.54 1.43 1.35 1.39 1.34 1.20 1.09 1.02 0.99 0.98 0.92 0.92 0.91 0.83 0.79 0.84 0.87
0.91 0.81 0.83 0.92 0.94 1.03 1.07 1.36 1.62 1.85 1.97 2.04 2.02 1.87 1.67 1.57 1.45 1.48 1.62 1.80 1.87 1.82 1.73 1.45 1.39 1.35 1.29 1.24 1.15 1.07 1.02 1.04 1.00 0.97 0.97 0.91 0.92 0.90
0.80 0.73 0.71 0.75 0.67 0.64 0.68 0.91 1.20 1.40 1.59 1.77 1.83 1.71 1.57 1.50 1.55 1.54 1.54 1.61 1.64 1.57 1.57 1.58 1.50 1.42 1.35 1.28 1.28 1.25 1.17 1.12 1.15 1.10 1.09 1.06 1.05 1.09
0.83 0.85 0.77 0.72 0.80 0.71 0.65 0.72 0.80 0.92 1.08 1.35 1.58 1.57 1.66 1.59 1.50 1.45 1.46 1.50 1.50 1.55 1.56 1.57 1.48 1.40 1.29 1.26 1.38 1.30 1.30 1.26 1.26 1.29 1.20 1.20 1.18 1.17
0.89 0.97 0.98 0.92 0.89 0.96 0.90 0.91 0.88 0.80 0.87 0.80 1.01 1.39 1.53 1.59 1.55 1.58 1.67 1.60 1.47 1.51 1.53 1.55 1.48 1.37 1.24 1.16 1.25 1.16 1.10 1.10 1.18 1.35 1.43 1.40 1.41 1.38
0.81 0.93 0.97 0.92 0.97 1.02 1.13 1.19 1.12 0.96 1.07 1.08 0.99 1.10 1.25 1.30 1.42 1.52 1.58 1.51 1.47 1.40 1.29 1.26 1.23 1.26 1.31 1.22 1.18 1.20 1.11 1.07 1.05 1.07 1.17 1.23 1.34 1.48
0.85 0.91 1.05 0.98 0.95 0.91 0.99 1.14 1.14 1.01 0.88 0.91 0.88 0.78 0.72 0.83 1.02 1.20 1.48 1.61 1.56 1.46 1.26 1.20 1.22 1.20 1.25 1.17 1.07 1.10 1.08 1.15 1.14 1.07 1.09 1.16 1.23 1.29
0.96 1.01 0.98 1.07 0.91 0.86 0.87 0.89 0.98 0.97 0.95 1.00 1.07 0.96 0.83 0.78 0.83 0.91 1.12 1.35 1.49 1.42 1.28 1.16 1.19 1.22 1.14 1.02 0.98 0.99 0.99 0.98 1.03 1.08 1.12 1.21 1.28 1.21
0.84 0.85 0.82 0.91 0.76 0.67 0.63 0.69 0.77 0.82 0.91 1.04 1.03 0.99 0.98 0.92 0.90 0.92 0.98 1.09 1.19 1.27 1.28 1.24 1.20 1.17 1.15 1.02 0.95 0.96 0.96 0.94 0.91 0.94 0.97 1.19 1.36 1.40
0.56 0.66 0.69 0.66 0.61 0.54 0.59 0.64 0.65 0.68 0.80 0.89 0.91 0.88 0.87 0.91 0.92 0.92 0.95 0.99 0.99 0.94 0.95 1.03 1.13 1.17 1.18 1.11 0.98 0.96 0.97 0.92 0.84 0.84 0.90 0.96 1.05 1.22
0.47 0.50 0.52 0.50 0.51 0.52 0.55 0.60 0.66 0.70 0.73 0.77 0.77 0.81 0.82 0.88 0.94 0.92 0.93 0.98 1.04 1.00 0.96 0.99 1.07 1.18 1.21 1.14 1.09 1.03 1.00 0.95 0.87 0.83 0.83 0.89 0.99 1.09
0.56 0.52 0.50 0.50 0.51 0.57 0.60 0.60 0.64 0.68 0.68 0.67 0.70 0.72 0.72 0.78 0.83 0.84 0.87 0.91 0.93 0.90 0.93 1.00 1.07 1.13 1.15 1.16 1.18 1.11 1.09 1.08 1.04 1.00 0.97 0.93 0.92 1.00
0.56 0.63 0.66 0.70 0.72 0.72 0.70 0.62 0.58 0.59 0.64 0.70 0.70 0.70 0.71 0.71 0.75 0.79 0.82 0.89 0.90 0.84 0.79 0.84 0.96 1.07 1.08 1.00 0.94 0.94 0.98 0.99 1.06 1.11 1.07 1.02 0.96 0.98
0.53 0.69 0.71 0.68 0.65 0.64 0.61 0.55 0.50 0.47 0.49 0.59 0.69 0.76 0.77 0.77 0.81 0.85 0.84 0.82 0.82 0.82 0.77 0.74 0.79 0.92 0.97 0.85 0.77 0.75 0.78 0.83 0.92 0.97 0.99 0.95 0.90 0.94
0.50 0.60 0.62 0.61 0.53 0.47 0.42 0.37 0.36 0.35 0.35 0.41 0.47 0.57 0.72 0.84 0.92 0.94 0.95 0.97 0.96 0.92 0.87 0.78 0.72 0.73 0.81 0.83 0.75 0.65 0.64 0.71 0.82 0.85 0.86 0.88 0.90 0.96
0.30 0.32 0.33 0.35 0.35 0.31 0.29 0.29 0.30 0.30 0.31 0.33 0.37 0.42 0.53 0.68 0.86 0.96 0.98 1.03 1.02 1.01 1.00 0.92 0.89 0.93 0.86 0.89 0.86 0.67 0.59 0.63 0.71 0.75 0.79 0.87 0.89 0.86
0.21 0.22 0.22 0.22 0.23 0.24 0.24 0.25 0.29 0.30 0.29 0.32 0.38 0.44 0.55 0.61 0.66 0.78 0.91 0.95 0.89 0.84 0.85 0.89 0.94 0.96 0.92 0.97 0.94 0.80 0.70 0.64 0.68 0.76 0.79 0.83 0.85 0.85
0.23 0.23 0.23 0.23 0.25 0.30 0.30 0.29 0.29 0.31 0.31 0.32 0.37 0.44 0.53 0.62 0.68 0.71 0.74 0.78 0.82 0.84 0.85 0.86 0.87 0.89 0.92 0.97 1.05 1.03 0.90 0.79 0.75 0.78 0.80 0.88 0.85 0.75

GEFSNE_prec_meanprecacc_216.txt.gz
Total_Precipitation_Accumulation
2.01 2.08 2.04 2.02 2.01 1.90 1.88 2.05 2.16 2.01 1.86 1.67 1.53 1.46 1.48 1.40 1.48 1.32 1.26 1.19 1.04 0.99 1.00 0.97 1.12 1.45 1.66 1.84 2.01 2.02 2.14 2.24 2.34 2.48 2.44 2.30 2.26 2.11
2.02 2.12 2.15 2.15 2.16 2.09 1.96 1.95 1.92 1.97 1.88 1.67 1.48 1.40 1.52 1.39 1.50 1.31 1.25 1.40 1.20 1.12 1.04 0.93 0.91 0.99 1.12 1.30 1.50 1.63 1.66 1.72 1.82 2.07 2.26 2.26 2.18 2.01
1.82 1.92 2.04 2.13 2.25 2.27 2.25 2.13 2.00 1.95 1.87 1.73 1.53 1.42 1.57 1.58 1.50 1.44 1.32 1.25 1.24 1.23 1.10 1.05 0.98 0.87 0.93 1.02 1.20 1.34 1.43 1.31 1.24 1.39 1.64 1.76 1.95 1.99
1.67 1.64 1.71 1.81 1.97 2.12 2.21 2.15 2.14 2.03 1.94 1.94 1.77 1.53 1.44 1.52 1.56 1.64 1.54 1.30 1.27 1.36 1.29 1.19 1.11 0.95 0.86 0.89 1.00 1.06 1.10 1.12 1.03 0.99 1.11 1.21 1.31 1.50
1.45 1.41 1.42 1.50 1.65 1.80 1.90 1.98 2.09 2.11 2.11 2.02 1.94 1.77 1.54 1.55 1.62 1.64 1.67 1.72 1.48 1.40 1.40 1.34 1.25 1.14 1.05 0.97 0.94 0.95 0.92 0.94 0.94 0.86 0.85 0.97 1.02 1.16
1.14 1.15 1.19 1.24 1.33 1.47 1.62 1.83 2.01 2.11 2.18 2.16 2.06 1.84 1.68 1.66 1.64 1.66 1.75 1.82 1.79 1.56 1.44 1.37 1.40 1.35 1.20 1.10 1.03 1.00 1.00 0.94 0.94 0.93 0.85 0.81 0.84 0.87
0.92 0.83 0.85 0.93 0.97 1.06 1.10 1.39 1.64 1.86 1.98 2.05 2.03 1.88 1.68 1.58 1.46 1.49 1.63 1.81 1.88 1.83 1.74 1.46 1.39 1.35 1.30 1.24 1.15 1.07 1.03 1.06 1.02 1.00 1.00 0.93 0.92 0.90
0.81 0.74 0.72 0.76 0.69 0.67 0.71 0.93 1.22 1.42 1.59 1.78 1.84 1.72 1.58 1.51 1.56 1.55 1.55 1.61 1.65 1.58 1.58 1.59 1.51 1.42 1.35 1.29 1.29 1.26 1.18 1.13 1.16 1.12 1.10 1.07 1.05 1.09
0.84 0.86 0.78 0.73 0.82 0.73 0.67 0.74 0.82 0.93 1.09 1.36 1.59 1.57 1.66 1.60 1.51 1.45 1.46 1.50 1.50 1.56 1.56 1.57 1.48 1.40 1.30 1.26 1.38 1.30 1.30 1.26 1.27 1.30 1.20 1.21 1.18 1.18
0.90 0.97 0.99 0.93 0.91 0.98 0.92 0.92 0.89 0.81 0.89 0.81 1.02 1.39 1.53 1.60 1.55 1.58 1.67 1.60 1.48 1.51 1.53 1.55 1.48 1.38 1.24 1.17 1.26 1.17 1.11 1.11 1.19 1.35 1.43 1.40 1.42 1.39
0.82 0.93 0.98 0.94 1.00 1.06 1.16 1.22 1.15 0.99 1.10 1.10 1.00 1.11 1.25 1.31 1.42 1.52 1.59 1.52 1.48 1.40 1.29 1.26 1.23 1.26 1.31 1.23 1.19 1.22 1.12 1.08 1.06 1.07 1.17 1.24 1.34 1.49
0.85 0.91 1.06 0.99 0.97 0.94 1.02 1.16 1.14 1.01 0.89 0.92 0.89 0.78 0.72 0.83 1.03 1.20 1.49 1.61 1.56 1.46 1.27 1.20 1.23 1.21 1.25 1.18 1.08 1.10 1.09 1.15 1.14 1.07 1.10 1.17 1.24 1.29
0.96 1.01 0.99 1.08 0.92 0.88 0.89 0.90 0.99 0.98 0.95 1.00 1.07 0.96 0.83 0.78 0.83 0.91 1.12 1.35 1.49 1.42 1.28 1.16 1.21 1.23 1.15 1.03 0.98 1.00 1.00 0.98 1.03 1.09 1.13 1.23 1.29 1.21
0.85 0.86 0.83 0.93 0.79 0.70 0.64 0.70 0.77 0.83 0.91 1.04 1.03 0.99 0.98 0.92 0.90 0.93 0.98 1.09 1.20 1.27 1.28 1.25 1.21 1.18 1.15 1.02 0.96 0.97 0.96 0.94 0.91 0.96 0.99 1.22 1.37 1.41
0.57 0.67 0.70 0.68 0.63 0.56 0.60 0.64 0.66 0.69 0.80 0.89 0.91 0.88 0.88 0.92 0.93 0.93 0.95 1.00 1.00 0.95 0.96 1.04 1.15 1.17 1.19 1.11 0.98 0.97 0.97 0.92 0.85 0.86 0.93 1.00 1.07 1.23
0.48 0.51 0.53 0.51 0.52 0.54 0.56 0.60 0.66 0.70 0.73 0.77 0.78 0.81 0.82 0.88 0.95 0.92 0.93 0.99 1.05 1.01 0.97 1.01 1.08 1.20 1.22 1.14 1.09 1.03 1.01 0.96 0.87 0.84 0.85 0.92 1.01 1.11
0.57 0.53 0.51 0.52 0.53 0.59 0.61 0.60 0.64 0.68 0.68 0.67 0.70 0.72 0.72 0.78 0.83 0.84 0.87 0.92 0.95 0.91 0.94 1.01 1.08 1.14 1.16 1.17 1.19 1.12 1.10 1.08 1.04 1.01 0.97 0.94 0.94 1.01
0.56 0.64 0.67 0.73 0.75 0.73 0.71 0.62 0.58 0.59 0.64 0.70 0.70 0.71 0.72 0.71 0.75 0.79 0.83 0.90 0.92 0.85 0.81 0.86 0.98 1.09 1.10 1.02 0.95 0.95 0.99 1.00 1.06 1.12 1.07 1.02 0.97 0.99
0.54 0.71 0.73 0.70 0.67 0.65 0.61 0.55 0.50 0.47 0.50 0.59 0.69 0.76 0.77 0.78 0.81 0.85 0.85 0.83 0.83 0.83 0.78 0.75 0.80 0.93 0.99 0.87 0.78 0.76 0.79 0.83 0.92 0.97 1.00 0.95 0.91 0.94
0.51 0.62 0.64 0.62 0.54 0.48 0.42 0.37 0.37 0.35 0.35 0.41 0.47 0.57 0.73 0.84 0.92 0.95 0.96 0.98 0.97 0.94 0.88 0.79 0.73 0.74 0.83 0.84 0.76 0.66 0.66 0.73 0.83 0.86 0.86 0.89 0.90 0.96
0.31 0.34 0.36 0.38 0.36 0.32 0.30 0.30 0.31 0.31 0.31 0.33 0.37 0.42 0.53 0.69 0.87 0.97 1.00 1.04 1.03 1.02 1.01 0.93 0.90 0.94 0.87 0.90 0.87 0.68 0.60 0.64 0.72 0.75 0.79 0.87 0.89 0.87
0.22 0.23 0.26 0.26 0.25 0.26 0.26 0.27 0.31 0.32 0.30 0.33 0.38 0.45 0.55 0.62 0.68 0.80 0.93 0.97 0.90 0.86 0.87 0.91 0.96 0.97 0.93 0.98 0.95 0.81 0.70 0.65 0.69 0.77 0.80 0.85 0.86 0.85
0.24 0.26 0.28 0.28 0.28 0.32 0.32 0.32 0.32 0.34 0.33 0.34 0.37 0.45 0.54 0.64 0.70 0.73 0.76 0.80 0.84 0.86 0.87 0.88 0.89 0.90 0.93 0.98 1.06 1.03 0.90 0.79 0.76 0.79 0.80 0.89 0.85 0.76

GEFSNE_prec_meanprecacc_222.txt.gz
Total_Precipitation_Accumulation
2.04 2.10 2.05 2.04 2.02 1.92 1.90 2.07 2.19 2.03 1.86 1.68 1.54 1.47 1.49 1.40 1.49 1.32 1.27 1.20 1.04 0.99 1.01 0.98 1.12 1.45 1.67 1.85 2.02 2.04 2.17 2.27 2.36 2.50 2.47 2.34 2.31 2.15
2.04 2.15 2.17 2.16 2.17 2.10 1.98 1.96 1.93 1.97 1.89 1.67 1.49 1.41 1.53 1.39 1.50 1.31 1.25 1.40 1.20 1.12 1.04 0.93 0.91 0.99 1.12 1.32 1.56 1.66 1.69 1.74 1.83 2.09 2.29 2.29 2.21 2.03
1.83 1.93 2.06 2.15 2.26 2.28 2.27 2.15 2.01 1.97 1.88 1.74 1.55 1.44 1.58 1.59 1.51 1.44 1.32 1.25 1.25 1.23 1.10 1.05 0.98 0.88 0.93 1.04 1.25 1.39 1.46 1.33 1.25 1.41 1.66 1.77 1.97 2.00
1.71 1.67 1.75 1.85 2.00 2.15 2.24 2.18 2.17 2.06 1.96 1.96 1.80 1.56 1.47 1.53 1.58 1.65 1.54 1.31 1.27 1.36 1.30 1.19 1.11 0.97 0.87 0.91 1.01 1.07 1.12 1.13 1.03 0.99 1.11 1.22 1.32 1.51
1.49 1.45 1.46 1.54 1.69 1.84 1.94 2.01 2.12 2.14 2.14 2.06 1.99 1.81 1.57 1.58 1.64 1.65 1.67 1.72 1.49 1.40 1.40 1.35 1.26 1.16 1.07 0.98 0.94 0.95 0.93 0.94 0.94 0.87 0.85 0.98 1.03 1.17
1.17 1.18 1.21 1.26 1.36 1.51 1.66 1.87 2.05 2.14 2.20 2.18 2.08 1.87 1.70 1.67 1.65 1.66 1.75 1.82 1.80 1.57 1.45 1.38 1.42 1.37 1.21 1.10 1.03 1.00 1.00 0.95 0.95 0.94 0.86 0.82 0.86 0.89
0.95 0.85 0.87 0.95 0.99 1.09 1.13 1.42 1.67 1.89 2.01 2.07 2.04 1.90 1.70 1.59 1.46 1.49 1.63 1.81 1.89 1.85 1.75 1.47 1.40 1.36 1.30 1.25 1.15 1.08 1.03 1.06 1.03 1.01 1.01 0.94 0.94 0.92
0.83 0.75 0.73 0.78 0.72 0.69 0.72 0.95 1.25 1.44 1.62 1.80 1.86 1.74 1.60 1.52 1.56 1.55 1.55 1.62 1.65 1.59 1.58 1.59 1.51 1.43 1.35 1.29 1.29 1.26 1.18 1.14 1.18 1.13 1.12 1.09 1.06 1.11
0.86 0.87 0.78 0.74 0.83 0.74 0.68 0.75 0.83 0.95 1.11 1.38 1.61 1.60 1.69 1.62 1.52 1.46 1.47 1.50 1.51 1.56 1.57 1.57 1.48 1.40 1.30 1.27 1.39 1.31 1.31 1.27 1.28 1.32 1.23 1.23 1.20 1.19
0.91 0.98 0.99 0.93 0.92 0.99 0.92 0.93 0.89 0.83 0.90 0.82 1.03 1.40 1.55 1.61 1.57 1.59 1.68 1.61 1.48 1.51 1.53 1.55 1.48 1.38 1.25 1.17 1.27 1.18 1.12 1.12 1.20 1.37 1.45 1.42 1.43 1.40
0.83 0.94 0.99 0.94 1.00 1.06 1.16 1.22 1.15 1.00 1.11 1.11 1.02 1.13 1.27 1.33 1.44 1.54 1.61 1.54 1.49 1.41 1.29 1.26 1.23 1.27 1.31 1.23 1.19 1.22 1.13 1.09 1.07 1.09 1.19 1.25 1.36 1.50
0.86 0.92 1.06 0.99 0.97 0.95 1.02 1.16 1.15 1.02 0.89 0.92 0.89 0.79 0.73 0.84 1.04 1.21 1.50 1.62 1.57 1.46 1.27 1.20 1.23 1.22 1.25 1.18 1.08 1.10 1.09 1.16 1.15 1.09 1.11 1.18 1.25 1.30
0.97 1.02 1.00 1.09 0.92 0.88 0.89 0.90 1.00 0.98 0.96 1.00 1.07 0.96 0.84 0.79 0.83 0.92 1.14 1.37 1.51 1.43 1.29 1.16 1.21 1.24 1.16 1.03 0.98 1.00 1.00 0.99 1.04 1.10 1.14 1.24 1.29 1.22
0.86 0.87 0.85 0.94 0.79 0.70 0.65 0.72 0.79 0.83 0.91 1.04 1.03 0.99 0.98 0.92 0.91 0.94 1.00 1.11 1.21 1.28 1.29 1.26 1.22 1.18 1.16 1.02 0.96 0.97 0.96 0.94 0.92 0.96 1.00 1.24 1.39 1.41
0.58 0.68 0.71 0.69 0.64 0.58 0.62 0.66 0.67 0.69 0.80 0.89 0.91 0.88 0.88 0.92 0.93 0.94 0.97 1.01 1.01 0.96 0.97 1.06 1.16 1.19 1.20 1.12 0.99 0.97 0.97 0.92 0.85 0.86 0.93 1.00 1.08 1.24
0.49 0.52 0.54 0.52 0.53 0.55 0.58 0.61 0.67 0.70 0.74 0.77 0.78 0.81 0.82 0.89 0.95 0.93 0.94 1.01 1.08 1.02 0.97 1.02 1.10 1.21 1.23 1.15 1.10 1.04 1.01 0.96 0.87 0.84 0.85 0.92 1.01 1.11
0.58 0.54 0.52 0.52 0.53 0.59 0.62 0.61 0.64 0.69 0.68 0.67 0.70 0.72 0.72 0.78 0.83 0.85 0.88 0.93 0.97 0.93 0.95 1.02 1.09 1.15 1.17 1.18 1.20 1.12 1.10 1.09 1.05 1.01 0.98 0.94 0.95 1.02
0.57 0.65 0.68 0.74 0.75 0.74 0.72 0.64 0.59 0.59 0.65 0.70 0.71 0.71 0.72 0.71 0.76 0.80 0.83 0.91 0.94 0.87 0.82 0.87 0.99 1.10 1.11 1.03 0.96 0.96 1.00 1.01 1.07 1.13 1.08 1.03 0.98 0.99
0.54 0.71 0.73 0.71 0.68 0.66 0.63 0.56 0.51 0.48 0.50 0.60 0.70 0.77 0.78 0.78 0.81 0.85 0.85 0.84 0.84 0.85 0.80 0.77 0.82 0.95 1.01 0.89 0.79 0.77 0.80 0.85 0.94 0.99 1.02 0.97 0.91 0.95
0.52 0.63 0.65 0.64 0.56 0.50 0.44 0.38 0.38 0.37 0.37 0.42 0.48 0.58 0.73 0.84 0.92 0.95 0.97 0.99 0.98 0.95 0.90 0.81 0.74 0.76 0.84 0.85 0.76 0.66 0.66 0.73 0.84 0.88 0.88 0.90 0.91 0.97
0.33 0.36 0.37 0.39 0.38 0.34 0.31 0.31 0.32 0.32 0.33 0.35 0.39 0.44 0.54 0.70 0.87 0.98 1.00 1.05 1.05 1.04 1.03 0.95 0.91 0.96 0.88 0.90 0.88 0.69 0.60 0.64 0.73 0.76 0.80 0.88 0.91 0.88
0.25 0.27 0.28 0.27 0.27 0.27 0.27 0.29 0.32 0.33 0.32 0.35 0.41 0.47 0.58 0.64 0.70 0.81 0.95 0.99 0.92 0.88 0.89 0.93 0.97 0.99 0.94 0.99 0.95 0.81 0.71 0.65 0.70 0.78 0.81 0.85 0.87 0.87
0.27 0.29 0.31 0.31 0.30 0.34 0.34 0.34 0.34 0.36 0.35 0.36 0.40 0.47 0.56 0.67 0.73 0.76 0.79 0.82 0.86 0.88 0.89 0.90 0.90 0.91 0.93 0.98 1.06 1.04 0.91 0.80 0.76 0.79 0.81 0.89 0.86 0.76

GEFSNE_prec_meanprecacc_228.txt.gz
Total_Precipitation_Accumulation
2.06 2.14 2.09 2.07 2.07 1.98 1.96 2.12 2.23 2.06 1.89 1.70 1.55 1.48 1.50 1.41 1.49 1.33 1.28 1.21 1.06 1.01 1.03 0.99 1.13 1.45 1.68 1.86 2.03 2.05 2.19 2.31 2.39 2.52 2.50 2.36 2.34 2.17
2.05 2.17 2.20 2.18 2.20 2.14 2.02 2.00 1.96 2.00 1.91 1.70 1.51 1.43 1.54 1.40 1.50 1.31 1.25 1.40 1.21 1.13 1.05 0.93 0.91 1.00 1.13 1.32 1.57 1.68 1.72 1.77 1.85 2.10 2.30 2.31 2.23 2.05
1.84 1.95 2.07 2.16 2.28 2.30 2.30 2.19 2.05 1.98 1.90 1.76 1.57 1.46 1.59 1.60 1.51 1.45 1.32 1.25 1.25 1.23 1.11 1.05 0.99 0.88 0.94 1.04 1.26 1.41 1.48 1.34 1.27 1.43 1.68 1.80 2.00 2.02
1.72 1.69 1.76 1.86 2.02 2.17 2.26 2.21 2.20 2.08 1.99 1.99 1.83 1.59 1.49 1.56 1.59 1.66 1.56 1.32 1.28 1.37 1.30 1.20 1.12 0.98 0.89 0.93 1.02 1.08 1.13 1.14 1.05 1.01 1.12 1.23 1.34 1.53
1.50 1.47 1.47 1.55 1.70 1.85 1.95 2.02 2.14 2.16 2.17 2.10 2.04 1.87 1.63 1.62 1.67 1.68 1.69 1.73 1.50 1.41 1.41 1.35 1.27 1.16 1.08 0.98 0.94 0.96 0.93 0.95 0.94 0.87 0.85 0.98 1.03 1.17
1.19 1.19 1.22 1.27 1.37 1.52 1.67 1.88 2.06 2.15 2.22 2.20 2.11 1.90 1.74 1.71 1.68 1.69 1.77 1.84 1.81 1.57 1.46 1.39 1.42 1.37 1.21 1.11 1.03 1.00 1.00 0.95 0.95 0.94 0.86 0.82 0.86 0.89
0.96 0.86 0.88 0.96 1.00 1.10 1.14 1.43 1.68 1.90 2.02 2.08 2.06 1.92 1.72 1.63 1.50 1.53 1.66 1.83 1.90 1.85 1.76 1.48 1.41 1.36 1.31 1.25 1.16 1.08 1.04 1.07 1.03 1.01 1.01 0.94 0.94 0.92
0.85 0.77 0.74 0.79 0.73 0.70 0.74 0.96 1.25 1.44 1.62 1.80 1.87 1.75 1.61 1.55 1.60 1.59 1.59 1.64 1.67 1.60 1.59 1.60 1.51 1.43 1.36 1.29 1.29 1.26 1.18 1.14 1.18 1.14 1.12 1.09 1.07 1.11
0.87 0.89 0.80 0.75 0.85 0.75 0.69 0.76 0.84 0.95 1.11 1.38 1.61 1.60 1.70 1.63 1.54 1.49 1.51 1.55 1.54 1.59 1.59 1.59 1.49 1.40 1.30 1.27 1.40 1.31 1.31 1.27 1.29 1.32 1.23 1.23 1.21 1.20
0.92 1.00 1.00 0.94 0.92 0.99 0.92 0.93 0.90 0.83 0.91 0.83 1.03 1.41 1.56 1.62 1.58 1.62 1.72 1.66 1.52 1.54 1.55 1.57 1.49 1.38 1.25 1.17 1.27 1.18 1.12 1.12 1.20 1.37 1.45 1.43 1.44 1.41
0.84 0.96 1.00 0.95 1.01 1.06 1.17 1.23 1.15 1.00 1.11 1.11 1.02 1.13 1.28 1.34 1.45 1.56 1.63 1.57 1.52 1.43 1.31 1.28 1.24 1.28 1.32 1.23 1.19 1.23 1.14 1.10 1.07 1.09 1.19 1.26 1.37 1.51
0.86 0.92 1.07 1.00 0.98 0.95 1.03 1.17 1.16 1.02 0.90 0.93 0.90 0.80 0.74 0.85 1.05 1.23 1.52 1.64 1.59 1.49 1.29 1.22 1.25 1.23 1.26 1.18 1.08 1.10 1.10 1.17 1.17 1.10 1.13 1.19 1.27 1.31
0.97 1.02 1.00 1.09 0.93 0.89 0.89 0.91 1.00 0.99 0.96 1.01 1.08 0.97 0.84 0.80 0.84 0.93 1.15 1.39 1.54 1.46 1.31 1.19 1.23 1.26 1.17 1.04 0.99 1.00 1.01 1.00 1.04 1.11 1.16 1.26 1.31 1.23
0.87 0.88 0.85 0.94 0.80 0.71 0.66 0.72 0.79 0.84 0.92 1.05 1.04 1.00 0.98 0.93 0.91 0.95 1.01 1.13 1.24 1.32 1.32 1.28 1.24 1.21 1.17 1.03 0.97 0.97 0.97 0.95 0.92 0.97 1.01 1.25 1.40 1.43
0.59 0.70 0.72 0.70 0.65 0.58 0.62 0.67 0.68 0.70 0.81 0.90 0.92 0.89 0.88 0.92 0.93 0.94 0.98 1.03 1.03 0.99 1.01 1.08 1.19 1.22 1.21 1.12 0.99 0.97 0.98 0.93 0.86 0.87 0.94 1.02 1.09 1.25
0.51 0.54 0.56 0.54 0.54 0.56 0.59 0.63 0.68 0.72 0.75 0.78 0.79 0.82 0.83 0.89 0.95 0.94 0.95 1.02 1.10 1.05 1.00 1.03 1.12 1.24 1.25 1.16 1.11 1.04 1.02 0.97 0.88 0.85 0.86 0.93 1.02 1.12
0.60 0.56 0.53 0.54 0.55 0.62 0.65 0.64 0.66 0.70 0.69 0.69 0.71 0.73 0.73 0.79 0.84 0.85 0.89 0.95 1.00 0.97 0.96 1.03 1.10 1.17 1.19 1.19 1.21 1.13 1.11 1.10 1.06 1.02 0.98 0.95 0.95 1.02
0.60 0.67 0.69 0.75 0.78 0.78 0.75 0.66 0.60 0.60 0.65 0.71 0.71 0.72 0.73 0.72 0.76 0.80 0.84 0.92 0.97 0.90 0.84 0.88 1.00 1.11 1.12 1.03 0.97 0.96 1.00 1.02 1.08 1.13 1.09 1.03 0.98 1.00
0.58 0.74 0.76 0.75 0.71 0.69 0.65 0.58 0.52 0.49 0.51 0.60 0.70 0.77 0.79 0.79 0.82 0.87 0.87 0.86 0.87 0.88 0.82 0.78 0.83 0.97 1.03 0.90 0.79 0.78 0.81 0.85 0.95 1.00 1.02 0.97 0.92 0.95
0.55 0.65 0.68 0.66 0.59 0.53 0.46 0.41 0.39 0.38 0.37 0.42 0.49 0.58 0.74 0.86 0.94 0.97 0.99 1.01 1.00 0.97 0.92 0.82 0.76 0.78 0.87 0.88 0.78 0.67 0.67 0.74 0.84 0.88 0.88 0.91 0.91 0.98
0.36 0.38 0.40 0.42 0.41 0.36 0.33 0.33 0.34 0.33 0.34 0.36 0.40 0.45 0.56 0.71 0.89 0.99 1.02 1.07 1.07 1.06 1.05 0.97 0.94 0.99 0.90 0.92 0.89 0.69 0.61 0.65 0.74 0.77 0.81 0.90 0.92 0.89
0.29 0.29 0.31 0.32 0.31 0.30 0.29 0.31 0.34 0.35 0.33 0.36 0.42 0.48 0.59 0.65 0.71 0.82 0.97 1.00 0.94 0.91 0.92 0.95 0.99 1.01 0.96 1.00 0.96 0.82 0.71 0.66 0.71 0.79 0.82 0.87 0.89 0.88
0.30 0.32 0.34 0.34 0.33 0.36 0.36 0.36 0.36 0.38 0.37 0.38 0.42 0.49 0.58 0.68 0.74 0.77 0.80 0.84 0.89 0.91 0.92 0.92 0.92 0.92 0.94 0.99 1.07 1.04 0.91 0.80 0.77 0.80 0.82 0.91 0.87 0.77

GEFSNE_prec_meanprecacc_234.txt.gz
Total_Precipitation_Accumulation
2.09 2.17 2.12 2.09 2.09 2.00 2.01 2.18 2.28 2.11 1.94 1.73 1.57 1.50 1.51 1.42 1.50 1.34 1.29 1.22 1.07 1.02 1.04 1.01 1.16 1.48 1.70 1.87 2.03 2.06 2.22 2.34 2.41 2.55 2.53 2.38 2.36 2.19
2.08 2.19 2.23 2.21 2.24 2.18 2.07 2.06 2.00 2.05 1.96 1.74 1.54 1.44 1.55 1.40 1.51 1.32 1.26 1.41 1.22 1.14 1.06 0.95 0.92 1.01 1.14 1.33 1.58 1.68 1.73 1.78 1.86 2.11 2.31 2.32 2.24 2.05
1.86 1.97 2.10 2.18 2.29 2.33 2.35 2.25 2.10 2.03 1.95 1.80 1.60 1.47 1.60 1.61 1.52 1.46 1.33 1.26 1.26 1.24 1.12 1.06 1.00 0.89 0.94 1.04 1.26 1.42 1.49 1.35 1.28 1.44 1.69 1.81 2.00 2.03
1.75 1.72 1.79 1.88 2.04 2.19 2.29 2.26 2.25 2.13 2.03 2.03 1.86 1.61 1.51 1.57 1.61 1.68 1.57 1.34 1.30 1.39 1.31 1.20 1.13 0.98 0.89 0.93 1.02 1.08 1.13 1.15 1.05 1.01 1.12 1.23 1.35 1.54
1.53 1.49 1.49 1.57 1.72 1.87 1.96 2.05 2.18 2.21 2.22 2.16 2.09 1.92 1.67 1.65 1.70 1.70 1.71 1.75 1.52 1.43 1.42 1.36 1.28 1.17 1.08 0.98 0.95 0.96 0.94 0.95 0.94 0.87 0.86 0.98 1.04 1.18
1.21 1.20 1.23 1.28 1.38 1.53 1.69 1.90 2.07 2.18 2.24 2.23 2.15 1.95 1.78 1.74 1.70 1.71 1.79 1.86 1.83 1.59 1.47 1.40 1.44 1.38 1.22 1.11 1.03 1.01 1.00 0.95 0.95 0.94 0.86 0.82 0.86 0.90
0.98 0.88 0.90 0.98 1.01 1.11 1.15 1.44 1.70 1.91 2.03 2.09 2.07 1.93 1.74 1.64 1.51 1.54 1.67 1.85 1.92 1.87 1.78 1.49 1.42 1.37 1.31 1.25 1.16 1.08 1.04 1.07 1.03 1.01 1.01 0.95 0.95 0.92
0.86 0.78 0.77 0.82 0.75 0.72 0.75 0.97 1.26 1.45 1.64 1.82 1.88 1.77 1.63 1.56 1.61 1.60 1.60 1.66 1.69 1.62 1.61 1.62 1.53 1.44 1.36 1.30 1.30 1.26 1.19 1.15 1.18 1.14 1.12 1.09 1.07 1.11
0.89 0.90 0.81 0.77 0.86 0.76 0.70 0.77 0.85 0.96 1.12 1.39 1.62 1.61 1.71 1.64 1.56 1.50 1.52 1.56 1.56 1.61 1.61 1.60 1.51 1.41 1.31 1.28 1.41 1.32 1.31 1.27 1.29 1.32 1.23 1.24 1.21 1.20
0.94 1.01 1.01 0.95 0.93 1.00 0.93 0.94 0.90 0.84 0.92 0.84 1.04 1.42 1.57 1.63 1.59 1.63 1.73 1.67 1.54 1.57 1.57 1.59 1.51 1.40 1.26 1.18 1.27 1.19 1.12 1.12 1.20 1.37 1.46 1.43 1.44 1.41
0.85 0.97 1.01 0.97 1.02 1.08 1.17 1.23 1.15 1.00 1.11 1.12 1.02 1.14 1.29 1.34 1.46 1.56 1.63 1.57 1.53 1.45 1.33 1.30 1.26 1.30 1.33 1.24 1.19 1.23 1.14 1.10 1.08 1.09 1.20 1.26 1.37 1.52
0.87 0.93 1.09 1.01 0.98 0.96 1.03 1.17 1.16 1.02 0.90 0.93 0.90 0.80 0.75 0.86 1.06 1.23 1.52 1.65 1.60 1.50 1.31 1.23 1.26 1.25 1.28 1.20 1.09 1.11 1.10 1.17 1.17 1.11 1.13 1.20 1.27 1.32
0.99 1.03 1.01 1.10 0.94 0.89 0.90 0.91 1.00 0.99 0.97 1.01 1.08 0.97 0.85 0.81 0.85 0.94 1.16 1.40 1.55 1.47 1.33 1.20 1.25 1.27 1.19 1.06 1.00 1.01 1.01 1.00 1.05 1.12 1.17 1.26 1.31 1.24
0.89 0.89 0.86 0.96 0.81 0.72 0.66 0.73 0.80 0.85 0.93 1.05 1.05 1.00 0.99 0.93 0.92 0.95 1.02 1.14 1.25 1.33 1.33 1.29 1.26 1.23 1.19 1.05 0.98 0.98 0.98 0.95 0.93 0.98 1.02 1.26 1.41 1.43
0.61 0.72 0.74 0.72 0.67 0.59 0.63 0.67 0.69 0.71 0.82 0.91 0.93 0.89 0.88 0.93 0.94 0.95 0.99 1.04 1.04 1.00 1.02 1.09 1.21 1.25 1.24 1.15 1.01 0.99 0.99 0.94 0.87 0.88 0.95 1.02 1.10 1.25
0.53 0.56 0.59 0.56 0.56 0.57 0.60 0.64 0.69 0.73 0.76 0.79 0.80 0.83 0.83 0.89 0.96 0.94 0.96 1.03 1.10 1.05 1.00 1.04 1.14 1.27 1.28 1.19 1.13 1.06 1.03 0.99 0.90 0.87 0.87 0.94 1.03 1.13
0.62 0.58 0.55 0.56 0.56 0.63 0.66 0.65 0.68 0.71 0.70 0.70 0.72 0.74 0.74 0.80 0.85 0.86 0.90 0.96 1.01 0.97 0.97 1.03 1.11 1.20 1.23 1.23 1.24 1.15 1.13 1.13 1.08 1.04 1.00 0.97 0.97 1.04
0.62 0.69 0.72 0.77 0.79 0.79 0.76 0.67 0.61 0.61 0.67 0.73 0.73 0.73 0.75 0.74 0.77 0.81 0.85 0.93 0.98 0.91 0.84 0.89 1.01 1.13 1.15 1.07 1.00 0.99 1.03 1.04 1.11 1.16 1.10 1.04 0.99 1.01
0.60 0.77 0.80 0.77 0.73 0.70 0.66 0.59 0.53 0.50 0.53 0.62 0.72 0.79 0.80 0.80 0.83 0.88 0.88 0.87 0.88 0.89 0.83 0.80 0.85 1.00 1.06 0.92 0.82 0.80 0.84 0.88 0.97 1.02 1.03 0.98 0.93 0.97
0.57 0.68 0.70 0.69 0.61 0.55 0.48 0.42 0.41 0.39 0.39 0.45 0.51 0.60 0.75 0.87 0.95 0.98 1.00 1.03 1.02 0.99 0.94 0.85 0.78 0.81 0.90 0.91 0.80 0.68 0.69 0.77 0.87 0.90 0.90 0.92 0.92 0.99
0.39 0.40 0.41 0.43 0.42 0.38 0.35 0.35 0.35 0.35 0.37 0.39 0.41 0.47 0.57 0.72 0.90 1.01 1.04 1.10 1.09 1.08 1.07 0.99 0.96 1.02 0.93 0.95 0.92 0.72 0.63 0.68 0.76 0.79 0.82 0.91 0.93 0.90
0.32 0.32 0.32 0.33 0.32 0.31 0.31 0.33 0.36 0.36 0.35 0.38 0.43 0.50 0.60 0.67 0.73 0.86 1.00 1.03 0.97 0.93 0.94 0.97 1.01 1.03 0.98 1.02 0.98 0.84 0.75 0.70 0.74 0.81 0.84 0.88 0.90 0.89
0.32 0.34 0.36 0.36 0.35 0.39 0.38 0.37 0.38 0.39 0.38 0.39 0.42 0.49 0.59 0.70 0.77 0.80 0.84 0.88 0.92 0.94 0.95 0.95 0.95 0.94 0.96 1.01 1.09 1.06 0.95 0.85 0.82 0.84 0.85 0.93 0.88 0.79

GEFSNE_prec_meanprecacc_240.txt.gz
Total_Precipitation_Accumulation
2.12 2.20 2.14 2.11 2.11 2.04 2.03 2.20 2.30 2.13 1.96 1.76 1.60 1.52 1.53 1.43 1.52 1.36 1.31 1.26 1.10 1.06 1.07 1.05 1.22 1.53 1.73 1.90 2.07 2.09 2.24 2.37 2.43 2.57 2.55 2.40 2.37 2.20
2.10 2.22 2.25 2.23 2.25 2.20 2.10 2.08 2.02 2.07 1.99 1.76 1.56 1.47 1.60 1.45 1.54 1.34 1.29 1.45 1.25 1.17 1.09 0.98 0.95 1.03 1.16 1.35 1.59 1.69 1.74 1.79 1.87 2.12 2.32 2.32 2.24 2.06
1.90 1.99 2.12 2.19 2.30 2.34 2.36 2.27 2.12 2.07 2.01 1.83 1.62 1.51 1.67 1.67 1.56 1.48 1.35 1.28 1.28 1.25 1.12 1.07 1.01 0.90 0.96 1.05 1.27 1.42 1.49 1.36 1.28 1.44 1.69 1.81 2.01 2.03
1.78 1.75 1.81 1.89 2.04 2.20 2.30 2.28 2.27 2.16 2.08 2.08 1.89 1.64 1.54 1.60 1.63 1.69 1.59 1.35 1.31 1.40 1.32 1.21 1.14 1.00 0.90 0.94 1.03 1.09 1.14 1.15 1.05 1.01 1.13 1.24 1.35 1.54
1.57 1.51 1.50 1.58 1.73 1.88 1.97 2.06 2.20 2.23 2.25 2.21 2.13 1.95 1.69 1.66 1.71 1.72 1.73 1.78 1.54 1.45 1.44 1.38 1.30 1.19 1.10 1.00 0.96 0.98 0.95 0.96 0.95 0.87 0.86 0.98 1.04 1.19
1.23 1.21 1.24 1.29 1.39 1.54 1.69 1.90 2.08 2.19 2.26 2.27 2.22 2.00 1.83 1.77 1.72 1.72 1.81 1.88 1.85 1.61 1.48 1.41 1.46 1.40 1.24 1.13 1.05 1.02 1.01 0.97 0.96 0.95 0.86 0.83 0.86 0.90
1.00 0.89 0.91 0.99 1.02 1.11 1.15 1.44 1.70 1.92 2.04 2.11 2.11 1.97 1.77 1.67 1.53 1.55 1.68 1.86 1.93 1.88 1.78 1.50 1.43 1.38 1.32 1.26 1.17 1.09 1.05 1.08 1.04 1.02 1.01 0.95 0.95 0.92
0.88 0.80 0.78 0.83 0.76 0.73 0.76 0.98 1.28 1.46 1.64 1.83 1.89 1.78 1.64 1.57 1.62 1.61 1.61 1.67 1.70 1.62 1.61 1.62 1.53 1.44 1.37 1.31 1.30 1.27 1.20 1.16 1.19 1.14 1.13 1.10 1.08 1.12
0.91 0.92 0.83 0.79 0.87 0.77 0.71 0.78 0.87 0.97 1.13 1.40 1.63 1.62 1.71 1.65 1.56 1.50 1.52 1.57 1.57 1.61 1.61 1.61 1.51 1.42 1.31 1.28 1.41 1.33 1.32 1.28 1.29 1.33 1.24 1.24 1.22 1.21
0.96 1.04 1.04 0.97 0.95 1.01 0.95 0.95 0.91 0.84 0.92 0.84 1.05 1.42 1.57 1.64 1.60 1.63 1.73 1.67 1.54 1.57 1.58 1.59 1.52 1.40 1.26 1.18 1.28 1.19 1.13 1.13 1.21 1.38 1.46 1.43 1.45 1.42
0.87 0.99 1.04 0.99 1.04 1.10 1.19 1.24 1.16 1.01 1.12 1.12 1.03 1.14 1.29 1.35 1.47 1.56 1.63 1.57 1.53 1.45 1.33 1.30 1.27 1.30 1.34 1.25 1.20 1.24 1.15 1.11 1.08 1.10 1.20 1.27 1.38 1.53
0.89 0.95 1.11 1.04 1.01 0.98 1.05 1.18 1.16 1.03 0.91 0.94 0.91 0.81 0.75 0.87 1.07 1.24 1.53 1.65 1.60 1.50 1.31 1.24 1.27 1.26 1.28 1.20 1.10 1.12 1.11 1.18 1.18 1.11 1.13 1.20 1.28 1.33
1.01 1.05 1.03 1.13 0.97 0.92 0.92 0.92 1.01 1.00 0.98 1.02 1.09 0.98 0.86 0.81 0.86 0.94 1.16 1.40 1.55 1.47 1.33 1.21 1.25 1.28 1.20 1.06 1.01 1.02 1.02 1.01 1.06 1.13 1.18 1.27 1.32 1.24
0.90 0.91 0.88 0.97 0.83 0.74 0.68 0.74 0.81 0.86 0.94 1.06 1.05 1.00 0.99 0.93 0.92 0.96 1.03 1.14 1.25 1.33 1.34 1.30 1.26 1.24 1.20 1.05 0.99 0.98 0.98 0.96 0.94 0.99 1.03 1.27 1.41 1.44
0.63 0.74 0.77 0.74 0.69 0.62 0.65 0.69 0.71 0.72 0.83 0.91 0.93 0.89 0.89 0.93 0.94 0.96 0.99 1.04 1.05 1.00 1.02 1.09 1.21 1.26 1.25 1.15 1.01 0.99 1.00 0.95 0.88 0.89 0.97 1.03 1.11 1.26
0.55 0.59 0.62 0.59 0.58 0.59 0.62 0.66 0.71 0.74 0.77 0.80 0.80 0.83 0.84 0.90 0.96 0.95 0.97 1.04 1.11 1.06 1.00 1.04 1.14 1.27 1.28 1.19 1.14 1.07 1.04 1.00 0.92 0.88 0.89 0.96 1.05 1.14
0.65 0.60 0.58 0.58 0.58 0.64 0.67 0.66 0.69 0.72 0.72 0.71 0.73 0.75 0.75 0.81 0.86 0.87 0.91 0.96 1.01 0.98 0.97 1.04 1.12 1.20 1.23 1.23 1.24 1.16 1.14 1.14 1.10 1.06 1.02 0.99 1.00 1.06
0.65 0.72 0.74 0.80 0.81 0.80 0.77 0.68 0.62 0.63 0.69 0.74 0.75 0.75 0.76 0.75 0.79 0.82 0.86 0.95 0.99 0.92 0.85 0.90 1.02 1.14 1.15 1.07 1.01 1.01 1.04 1.06 1.12 1.18 1.12 1.07 1.02 1.03
0.62 0.79 0.82 0.80 0.76 0.73 0.68 0.61 0.55 0.52 0.55 0.65 0.75 0.82 0.82 0.81 0.84 0.88 0.89 0.88 0.89 0.90 0.84 0.81 0.86 1.01 1.07 0.94 0.83 0.82 0.86 0.90 0.99 1.05 1.07 1.01 0.95 1.00
0.58 0.69 0.72 0.71 0.64 0.58 0.50 0.44 0.43 0.42 0.43 0.48 0.53 0.61 0.76 0.88 0.96 0.99 1.01 1.04 1.03 1.00 0.95 0.86 0.79 0.82 0.93 0.93 0.83 0.71 0.72 0.79 0.89 0.93 0.95 0.96 0.96 1.02
0.40 0.41 0.43 0.45 0.44 0.41 0.37 0.37 0.38 0.39 0.40 0.42 0.44 0.49 0.59 0.74 0.92 1.02 1.06 1.11 1.11 1.10 1.10 1.02 0.98 1.04 0.96 0.99 0.96 0.75 0.65 0.70 0.79 0.82 0.87 0.95 0.97 0.93
0.33 0.33 0.34 0.35 0.34 0.33 0.33 0.35 0.38 0.39 0.38 0.41 0.46 0.52 0.63 0.69 0.75 0.87 1.01 1.04 0.99 0.96 0.98 1.01 1.05 1.06 1.02 1.06 1.02 0.87 0.76 0.71 0.76 0.83 0.87 0.92 0.94 0.93
0.33 0.35 0.38 0.38 0.37 0.40 0.40 0.39 0.40 0.42 0.42 0.42 0.45 0.52 0.61 0.72 0.79 0.82 0.85 0.89 0.94 0.97 0.98 0.97 0.97 0.97 0.99 1.04 1.11 1.08 0.96 0.87 0.84 0.86 0.87 0.95 0.92 0.82

GEFSNE_prec_meanprecacc_246.txt.gz
Total_Precipitation_Accumulation
2.14 2.22 2.16 2.13 2.12 2.04 2.05 2.21 2.31 2.14 1.97 1.78 1.62 1.55 1.56 1.46 1.54 1.37 1.33 1.27 1.11 1.07 1.09 1.08 1.26 1.58 1.80 1.96 2.11 2.12 2.27 2.38 2.45 2.59 2.56 2.41 2.38 2.23
2.13 2.24 2.28 2.25 2.26 2.21 2.10 2.08 2.03 2.08 2.00 1.78 1.59 1.50 1.63 1.47 1.57 1.36 1.31 1.47 1.27 1.19 1.11 1.00 0.99 1.08 1.21 1.38 1.61 1.71 1.75 1.81 1.89 2.14 2.33 2.33 2.25 2.07
1.92 2.02 2.15 2.21 2.31 2.35 2.37 2.27 2.13 2.07 2.02 1.85 1.65 1.54 1.70 1.69 1.57 1.49 1.37 1.30 1.29 1.27 1.14 1.09 1.04 0.95 0.99 1.07 1.28 1.43 1.51 1.37 1.29 1.45 1.70 1.81 2.01 2.04
1.83 1.78 1.84 1.91 2.06 2.21 2.31 2.28 2.28 2.16 2.09 2.10 1.93 1.69 1.59 1.63 1.65 1.71 1.60 1.37 1.33 1.42 1.35 1.23 1.16 1.02 0.93 0.96 1.05 1.10 1.16 1.17 1.06 1.02 1.13 1.24 1.36 1.55
1.61 1.54 1.53 1.60 1.75 1.89 1.98 2.07 2.20 2.23 2.26 2.24 2.18 1.99 1.73 1.70 1.74 1.74 1.76 1.80 1.56 1.48 1.47 1.40 1.32 1.21 1.12 1.01 0.97 0.99 0.96 0.96 0.95 0.88 0.86 0.99 1.05 1.19
1.26 1.24 1.26 1.31 1.40 1.55 1.70 1.92 2.10 2.21 2.27 2.30 2.26 2.05 1.87 1.80 1.74 1.75 1.83 1.90 1.88 1.65 1.52 1.43 1.48 1.42 1.26 1.14 1.06 1.02 1.02 0.97 0.97 0.95 0.87 0.83 0.87 0.90
1.03 0.91 0.93 1.01 1.04 1.13 1.17 1.46 1.72 1.94 2.06 2.13 2.13 2.00 1.81 1.70 1.55 1.57 1.70 1.88 1.96 1.92 1.81 1.51 1.44 1.39 1.33 1.27 1.18 1.10 1.05 1.09 1.05 1.03 1.03 0.96 0.96 0.94
0.90 0.82 0.80 0.85 0.78 0.75 0.78 1.01 1.30 1.48 1.66 1.85 1.91 1.80 1.66 1.59 1.64 1.62 1.61 1.67 1.71 1.63 1.62 1.63 1.54 1.45 1.37 1.31 1.31 1.28 1.21 1.17 1.20 1.16 1.14 1.11 1.09 1.13
0.93 0.94 0.85 0.81 0.90 0.79 0.73 0.81 0.89 1.00 1.16 1.42 1.64 1.63 1.73 1.67 1.57 1.51 1.52 1.57 1.57 1.62 1.62 1.62 1.52 1.42 1.32 1.29 1.42 1.33 1.33 1.29 1.30 1.33 1.25 1.25 1.23 1.22
1.00 1.07 1.06 0.99 0.97 1.03 0.96 0.97 0.93 0.87 0.95 0.86 1.06 1.43 1.59 1.65 1.61 1.64 1.74 1.68 1.55 1.57 1.58 1.60 1.52 1.41 1.27 1.19 1.29 1.20 1.13 1.13 1.22 1.39 1.47 1.44 1.46 1.42
0.90 1.02 1.06 1.01 1.06 1.12 1.21 1.26 1.18 1.03 1.15 1.15 1.05 1.16 1.32 1.37 1.49 1.58 1.64 1.58 1.53 1.45 1.33 1.30 1.27 1.30 1.35 1.26 1.21 1.24 1.16 1.11 1.09 1.11 1.21 1.28 1.39 1.54
0.91 0.98 1.14 1.06 1.03 1.01 1.07 1.19 1.18 1.05 0.93 0.96 0.93 0.83 0.77 0.89 1.10 1.25 1.54 1.66 1.61 1.51 1.31 1.24 1.27 1.26 1.29 1.20 1.10 1.12 1.12 1.19 1.18 1.12 1.14 1.21 1.29 1.34
1.03 1.07 1.05 1.15 0.99 0.94 0.94 0.94 1.03 1.03 1.00 1.04 1.10 0.99 0.87 0.82 0.87 0.96 1.17 1.41 1.56 1.48 1.34 1.22 1.26 1.29 1.20 1.07 1.01 1.02 1.03 1.02 1.06 1.13 1.18 1.28 1.33 1.26
0.92 0.93 0.90 0.99 0.85 0.76 0.70 0.76 0.84 0.89 0.96 1.08 1.07 1.02 1.00 0.94 0.93 0.97 1.04 1.16 1.26 1.34 1.35 1.31 1.27 1.25 1.20 1.06 1.00 0.99 0.99 0.97 0.94 0.99 1.03 1.27 1.42 1.45
0.65 0.76 0.80 0.77 0.71 0.63 0.67 0.71 0.73 0.74 0.84 0.93 0.95 0.91 0.91 0.95 0.96 0.97 1.00 1.05 1.05 1.01 1.03 1.10 1.22 1.27 1.26 1.16 1.02 1.00 1.00 0.95 0.88 0.89 0.97 1.04 1.11 1.27
0.57 0.62 0.65 0.62 0.61 0.61 0.64 0.68 0.73 0.76 0.79 0.82 0.83 0.86 0.87 0.93 0.99 0.97 0.98 1.05 1.11 1.07 1.01 1.05 1.15 1.28 1.29 1.20 1.14 1.07 1.04 1.00 0.92 0.88 0.89 0.97 1.06 1.15
0.67 0.62 0.60 0.60 0.60 0.66 0.69 0.68 0.71 0.76 0.75 0.74 0.77 0.78 0.77 0.83 0.88 0.89 0.92 0.97 1.02 0.98 0.98 1.04 1.12 1.21 1.24 1.23 1.25 1.16 1.14 1.15 1.11 1.07 1.02 1.00 1.01 1.07
0.67 0.73 0.76 0.81 0.83 0.82 0.78 0.69 0.65 0.67 0.72 0.78 0.79 0.79 0.79 0.77 0.80 0.84 0.88 0.96 1.00 0.93 0.86 0.90 1.02 1.15 1.16 1.08 1.01 1.01 1.04 1.06 1.13 1.19 1.13 1.08 1.02 1.04
0.64 0.81 0.84 0.82 0.78 0.74 0.69 0.62 0.57 0.55 0.58 0.68 0.78 0.85 0.85 0.84 0.87 0.90 0.91 0.89 0.90 0.91 0.85 0.81 0.87 1.02 1.08 0.94 0.84 0.82 0.87 0.91 0.99 1.05 1.08 1.01 0.96 1.00
0.60 0.71 0.74 0.72 0.65 0.59 0.52 0.46 0.47 0.46 0.46 0.52 0.57 0.65 0.79 0.90 0.98 1.01 1.03 1.05 1.04 1.02 0.96 0.86 0.80 0.83 0.94 0.94 0.83 0.72 0.73 0.80 0.90 0.94 0.96 0.97 0.97 1.03
0.42 0.44 0.45 0.47 0.46 0.43 0.40 0.40 0.42 0.43 0.45 0.46 0.47 0.52 0.62 0.77 0.94 1.05 1.08 1.14 1.12 1.12 1.11 1.03 0.99 1.06 0.98 1.00 0.97 0.78 0.68 0.72 0.81 0.84 0.89 0.97 0.98 0.94
0.35 0.34 0.35 0.36 0.36 0.35 0.35 0.38 0.42 0.44 0.43 0.45 0.50 0.57 0.66 0.72 0.78 0.89 1.04 1.08 1.01 0.98 1.00 1.03 1.07 1.08 1.04 1.08 1.05 0.91 0.80 0.74 0.78 0.86 0.89 0.94 0.96 0.95
0.34 0.36 0.39 0.38 0.38 0.41 0.42 0.41 0.43 0.45 0.45 0.45 0.49 0.56 0.66 0.76 0.82 0.85 0.88 0.93 0.97 1.00 1.00 1.00 0.99 1.00 1.02 1.07 1.15 1.12 0.99 0.89 0.86 0.88 0.88 0.98 0.94 0.84

GEFSNE_prec_meanprecacc_252.txt.gz
Total_Precipitation_Accumulation
2.15 2.24 2.19 2.15 2.13 2.05 2.06 2.22 2.32 2.16 1.99 1.79 1.62 1.56 1.57 1.47 1.56 1.39 1.34 1.28 1.12 1.08 1.10 1.08 1.27 1.62 1.90 2.13 2.31 2.29 2.39 2.48 2.53 2.64 2.60 2.45 2.42 2.26
2.15 2.26 2.31 2.28 2.29 2.23 2.12 2.10 2.04 2.09 2.02 1.79 1.60 1.50 1.63 1.49 1.60 1.37 1.33 1.50 1.28 1.19 1.11 1.00 1.00 1.10 1.25 1.47 1.71 1.80 1.82 1.85 1.92 2.17 2.36 2.37 2.28 2.09
1.95 2.05 2.18 2.24 2.34 2.38 2.40 2.29 2.14 2.09 2.03 1.86 1.66 1.54 1.72 1.72 1.61 1.53 1.40 1.33 1.32 1.29 1.15 1.10 1.05 0.98 1.02 1.11 1.33 1.48 1.55 1.41 1.32 1.47 1.72 1.83 2.03 2.05
1.85 1.81 1.86 1.93 2.08 2.23 2.34 2.30 2.29 2.18 2.10 2.11 1.94 1.70 1.61 1.66 1.69 1.75 1.64 1.41 1.36 1.44 1.37 1.26 1.19 1.08 0.98 0.98 1.08 1.13 1.19 1.19 1.08 1.03 1.15 1.25 1.37 1.56
1.63 1.56 1.55 1.63 1.77 1.92 2.01 2.09 2.21 2.24 2.27 2.25 2.18 2.00 1.75 1.74 1.79 1.80 1.80 1.84 1.58 1.50 1.49 1.43 1.37 1.30 1.19 1.04 0.99 1.00 0.97 0.98 0.96 0.88 0.87 0.99 1.05 1.20
1.28 1.26 1.29 1.33 1.43 1.58 1.73 1.94 2.12 2.22 2.29 2.31 2.27 2.07 1.90 1.84 1.80 1.82 1.90 1.94 1.91 1.67 1.55 1.46 1.53 1.48 1.31 1.18 1.07 1.03 1.02 0.98 0.97 0.96 0.87 0.83 0.87 0.91
1.05 0.93 0.95 1.03 1.07 1.16 1.20 1.49 1.75 1.97 2.09 2.16 2.16 2.03 1.84 1.73 1.59 1.62 1.75 1.92 1.99 1.94 1.83 1.54 1.47 1.41 1.35 1.30 1.19 1.11 1.06 1.09 1.06 1.04 1.03 0.96 0.96 0.94
0.92 0.83 0.82 0.87 0.81 0.78 0.81 1.03 1.33 1.51 1.69 1.88 1.94 1.83 1.68 1.62 1.67 1.66 1.65 1.70 1.73 1.66 1.63 1.63 1.54 1.45 1.38 1.33 1.33 1.29 1.21 1.17 1.21 1.16 1.15 1.12 1.10 1.14
0.95 0.96 0.87 0.83 0.92 0.82 0.76 0.84 0.92 1.03 1.18 1.45 1.67 1.65 1.75 1.68 1.59 1.52 1.54 1.58 1.58 1.63 1.63 1.62 1.52 1.42 1.33 1.29 1.43 1.34 1.33 1.30 1.32 1.35 1.26 1.27 1.24 1.23
1.01 1.08 1.08 1.01 1.00 1.06 0.99 1.00 0.96 0.89 0.97 0.88 1.07 1.44 1.60 1.67 1.64 1.66 1.76 1.70 1.56 1.58 1.59 1.60 1.53 1.41 1.28 1.19 1.29 1.20 1.14 1.14 1.23 1.41 1.49 1.46 1.47 1.43
0.91 1.03 1.07 1.03 1.09 1.16 1.24 1.29 1.21 1.05 1.18 1.18 1.07 1.17 1.33 1.39 1.51 1.60 1.66 1.60 1.55 1.46 1.34 1.31 1.27 1.31 1.35 1.26 1.21 1.25 1.16 1.12 1.09 1.11 1.22 1.29 1.40 1.54
0.93 1.00 1.17 1.09 1.06 1.03 1.09 1.22 1.20 1.06 0.94 0.98 0.95 0.85 0.79 0.90 1.12 1.27 1.55 1.68 1.62 1.51 1.32 1.25 1.28 1.26 1.29 1.20 1.10 1.13 1.12 1.19 1.19 1.13 1.15 1.22 1.30 1.34
1.05 1.09 1.07 1.19 1.03 0.97 0.97 0.96 1.04 1.04 1.02 1.06 1.13 1.01 0.89 0.84 0.89 0.97 1.18 1.42 1.58 1.49 1.34 1.22 1.26 1.29 1.20 1.07 1.02 1.03 1.03 1.02 1.07 1.14 1.19 1.28 1.34 1.26
0.94 0.94 0.91 1.02 0.88 0.79 0.74 0.79 0.87 0.92 1.00 1.11 1.10 1.04 1.02 0.96 0.94 0.98 1.05 1.17 1.27 1.35 1.36 1.32 1.28 1.25 1.21 1.07 1.00 1.00 1.00 0.98 0.95 1.00 1.04 1.28 1.43 1.46
0.65 0.77 0.81 0.78 0.73 0.66 0.70 0.75 0.77 0.78 0.88 0.97 0.98 0.94 0.93 0.97 0.98 0.99 1.02 1.07 1.07 1.02 1.04 1.11 1.23 1.28 1.27 1.17 1.03 1.01 1.01 0.96 0.89 0.90 0.97 1.04 1.12 1.28
0.59 0.63 0.67 0.64 0.63 0.63 0.67 0.72 0.76 0.79 0.83 0.85 0.86 0.89 0.90 0.96 1.03 1.01 1.02 1.09 1.15 1.09 1.03 1.07 1.16 1.30 1.30 1.21 1.15 1.08 1.05 1.01 0.93 0.90 0.90 0.98 1.07 1.16
0.68 0.63 0.61 0.62 0.62 0.68 0.70 0.70 0.73 0.78 0.78 0.77 0.80 0.82 0.81 0.86 0.90 0.91 0.95 1.01 1.05 1.00 0.99 1.06 1.14 1.22 1.25 1.25 1.26 1.17 1.15 1.15 1.12 1.08 1.04 1.01 1.02 1.08
0.69 0.75 0.78 0.83 0.84 0.83 0.80 0.71 0.66 0.68 0.74 0.80 0.81 0.82 0.82 0.79 0.82 0.86 0.90 0.99 1.02 0.95 0.87 0.91 1.03 1.16 1.18 1.09 1.02 1.02 1.05 1.07 1.14 1.20 1.15 1.10 1.04 1.05
0.66 0.82 0.85 0.83 0.79 0.76 0.71 0.64 0.59 0.57 0.61 0.70 0.81 0.88 0.88 0.87 0.89 0.93 0.94 0.92 0.93 0.93 0.87 0.83 0.88 1.03 1.10 0.96 0.84 0.83 0.87 0.91 1.00 1.06 1.09 1.03 0.98 1.02
0.62 0.73 0.75 0.74 0.67 0.61 0.54 0.49 0.49 0.48 0.48 0.54 0.58 0.67 0.82 0.93 1.00 1.03 1.06 1.09 1.09 1.05 1.00 0.89 0.82 0.85 0.96 0.97 0.85 0.72 0.74 0.81 0.91 0.96 0.98 0.99 0.99 1.05
0.44 0.46 0.47 0.48 0.48 0.45 0.42 0.43 0.46 0.47 0.48 0.49 0.50 0.55 0.65 0.80 0.97 1.08 1.11 1.18 1.16 1.16 1.15 1.06 1.02 1.09 1.02 1.05 1.01 0.80 0.69 0.74 0.83 0.86 0.91 0.99 1.00 0.95
0.37 0.36 0.37 0.38 0.37 0.37 0.38 0.40 0.45 0.48 0.47 0.49 0.54 0.60 0.69 0.75 0.80 0.91 1.07 1.11 1.05 1.02 1.05 1.08 1.11 1.13 1.10 1.15 1.10 0.95 0.83 0.77 0.81 0.88 0.91 0.96 0.97 0.97
0.36 0.38 0.40 0.40 0.39 0.43 0.43 0.43 0.46 0.49 0.49 0.49 0.52 0.58 0.68 0.78 0.85 0.88 0.92 0.96 1.00 1.04 1.05 1.05 1.05 1.06 1.09 1.14 1.21 1.17 1.04 0.93 0.89 0.90 0.91 0.99 0.95 0.85